Time,TemperatureF,DewpointF,PressureIn,WindDirection,WindDirectionDegrees,WindSpeedMPH,WindSpeedGustMPH,Humidity,HourlyPrecipIn,Conditions,Clouds,dailyrainin,SoftwareType,DateUTC
2013-02-27 00:00:00,32.2,31.4,29.59,East,86,5.0,5.0,97,0.00,,,0.00,Wunderground v.1.15,2013-02-27 05:00:00,
2013-02-27 00:01:00,32.2,31.4,29.58,East,88,3.0,5.0,97,0.00,,,0.00,Wunderground v.1.15,2013-02-27 05:01:00,
2013-02-27 00:03:00,32.2,31.4,29.58,East,79,3.0,5.0,97,0.00,,,0.00,Wunderground v.1.15,2013-02-27 05:03:00,
2013-02-27 00:04:00,32.2,31.4,29.58,East,79,3.0,5.0,97,0.00,,,0.00,Wunderground v.1.15,2013-02-27 05:04:00,
2013-02-27 00:06:00,32.2,31.4,29.58,East,83,3.0,5.0,97,0.00,,,0.00,Wunderground v.1.15,2013-02-27 05:06:00,
2013-02-27 00:09:00,32.2,31.4,29.58,East,82,4.0,5.0,97,0.00,,,0.00,Wunderground v.1.15,2013-02-27 05:09:00,
2013-02-27 00:12:00,32.2,31.4,29.58,East,88,1.0,4.0,97,0.00,,,0.00,Wunderground v.1.15,2013-02-27 05:12:00,
2013-02-27 00:13:00,32.2,31.4,29.58,East,91,5.0,5.0,97,0.00,,,0.00,Wunderground v.1.15,2013-02-27 05:13:00,
2013-02-27 00:14:00,32.2,31.4,29.58,ENE,73,6.0,6.0,97,0.00,,,0.00,Wunderground v.1.15,2013-02-27 05:14:00,
2013-02-27 00:17:00,32.2,31.4,29.58,East,92,2.0,6.0,97,0.00,,,0.00,Wunderground v.1.15,2013-02-27 05:17:00,
2013-02-27 00:19:00,32.2,31.4,29.58,East,90,3.0,6.0,97,0.00,,,0.00,Wunderground v.1.15,2013-02-27 05:19:00,
2013-02-27 00:23:00,32.2,31.4,29.57,East,95,2.0,4.0,97,0.00,,,0.00,Wunderground v.1.15,2013-02-27 05:23:00,
2013-02-27 00:24:00,32.3,31.5,29.57,East,84,3.0,5.0,97,0.00,,,0.00,Wunderground v.1.15,2013-02-27 05:24:00,
2013-02-27 00:27:00,32.3,31.5,29.57,East,88,4.0,5.0,97,0.00,,,0.00,Wunderground v.1.15,2013-02-27 05:27:00,
2013-02-27 00:29:00,32.3,31.5,29.57,East,101,5.0,5.0,97,0.00,,,0.00,Wunderground v.1.15,2013-02-27 05:29:00,
2013-02-27 00:30:00,32.3,31.5,29.57,East,87,4.0,4.0,97,0.00,,,0.00,Wunderground v.1.15,2013-02-27 05:30:00,
2013-02-27 00:31:00,32.3,31.5,29.57,East,94,2.0,4.0,97,0.00,,,0.00,Wunderground v.1.15,2013-02-27 05:31:00,
2013-02-27 00:32:00,32.3,31.5,29.57,East,83,3.0,4.0,97,0.00,,,0.00,Wunderground v.1.15,2013-02-27 05:32:00,
2013-02-27 00:35:00,32.3,31.5,29.57,ENE,77,2.0,4.0,97,0.00,,,0.00,Wunderground v.1.15,2013-02-27 05:35:00,
2013-02-27 00:36:00,32.3,31.5,29.57,East,89,4.0,4.0,97,0.00,,,0.00,Wunderground v.1.15,2013-02-27 05:36:00,
2013-02-27 00:38:00,32.3,31.5,29.57,ENE,75,4.0,4.0,97,0.00,,,0.00,Wunderground v.1.15,2013-02-27 05:38:00,
2013-02-27 00:39:00,32.3,31.5,29.57,East,96,4.0,4.0,97,0.00,,,0.00,Wunderground v.1.15,2013-02-27 05:39:00,
2013-02-27 00:40:00,32.3,31.5,29.57,East,79,2.0,4.0,97,0.00,,,0.00,Wunderground v.1.15,2013-02-27 05:40:00,
2013-02-27 00:43:00,32.3,31.5,29.57,East,90,5.0,5.0,97,0.00,,,0.00,Wunderground v.1.15,2013-02-27 05:43:00,
2013-02-27 00:45:00,32.3,31.5,29.57,ENE,65,3.0,5.0,97,0.00,,,0.00,Wunderground v.1.15,2013-02-27 05:45:00,
2013-02-27 00:48:00,32.3,31.5,29.57,East,94,2.0,5.0,97,0.00,,,0.00,Wunderground v.1.15,2013-02-27 05:48:00,
2013-02-27 00:49:00,32.3,31.5,29.57,East,98,3.0,4.0,97,0.00,,,0.00,Wunderground v.1.15,2013-02-27 05:49:00,
2013-02-27 00:50:00,32.3,31.5,29.57,East,82,3.0,4.0,97,0.00,,,0.00,Wunderground v.1.15,2013-02-27 05:50:00,
2013-02-27 00:54:00,32.3,31.5,29.56,East,86,4.0,5.0,97,0.00,,,0.00,Wunderground v.1.15,2013-02-27 05:54:00,
2013-02-27 00:57:00,32.3,31.5,29.56,ENE,60,6.0,9.0,97,0.00,,,0.00,Wunderground v.1.15,2013-02-27 05:57:00,
2013-02-27 01:00:00,32.4,31.6,29.56,East,81,6.0,6.0,97,0.00,,,0.00,Wunderground v.1.15,2013-02-27 06:00:00,
2013-02-27 01:01:00,32.3,31.5,29.56,ENE,68,6.0,6.0,97,0.00,,,0.00,Wunderground v.1.15,2013-02-27 06:01:00,
2013-02-27 01:02:00,32.4,31.6,29.56,ENE,72,6.0,6.0,97,0.00,,,0.00,Wunderground v.1.15,2013-02-27 06:02:00,
2013-02-27 01:04:00,32.3,31.5,29.56,East,89,5.0,8.0,97,0.00,,,0.00,Wunderground v.1.15,2013-02-27 06:04:00,
2013-02-27 01:06:00,32.4,31.6,29.56,East,94,10.0,10.0,97,0.00,,,0.00,Wunderground v.1.15,2013-02-27 06:06:00,
2013-02-27 01:09:00,32.3,31.5,29.56,ENE,72,5.0,10.0,97,0.00,,,0.00,Wunderground v.1.15,2013-02-27 06:09:00,
2013-02-27 01:10:00,32.3,31.5,29.56,ESE,103,11.0,11.0,97,0.00,,,0.00,Wunderground v.1.15,2013-02-27 06:10:00,
2013-02-27 01:13:00,32.3,31.5,29.56,East,87,6.0,11.0,97,0.00,,,0.00,Wunderground v.1.15,2013-02-27 06:13:00,
2013-02-27 01:14:00,32.3,31.5,29.56,ENE,70,5.0,11.0,97,0.00,,,0.00,Wunderground v.1.15,2013-02-27 06:14:00,
2013-02-27 01:15:00,32.3,31.5,29.56,East,96,7.0,11.0,97,0.00,,,0.00,Wunderground v.1.15,2013-02-27 06:15:00,
2013-02-27 01:18:00,32.3,31.5,29.56,ENE,76,4.0,11.0,97,0.00,,,0.00,Wunderground v.1.15,2013-02-27 06:18:00,
2013-02-27 01:20:00,32.3,31.5,29.56,East,79,4.0,6.0,97,0.00,,,0.00,Wunderground v.1.15,2013-02-27 06:20:00,
2013-02-27 01:21:00,32.3,31.5,29.56,East,89,10.0,10.0,97,0.00,,,0.00,Wunderground v.1.15,2013-02-27 06:21:00,
2013-02-27 01:23:00,32.4,31.6,29.56,ENE,75,4.0,10.0,97,0.00,,,0.00,Wunderground v.1.15,2013-02-27 06:23:00,
2013-02-27 01:24:00,32.4,31.6,29.56,East,84,3.0,10.0,97,0.00,,,0.00,Wunderground v.1.15,2013-02-27 06:24:00,
2013-02-27 01:26:00,32.3,31.5,29.56,East,94,8.0,10.0,97,0.00,,,0.00,Wunderground v.1.15,2013-02-27 06:26:00,
2013-02-27 01:28:00,32.4,31.6,29.56,ENE,70,7.0,10.0,97,0.00,,,0.00,Wunderground v.1.15,2013-02-27 06:28:00,
2013-02-27 01:29:00,32.4,31.6,29.56,ENE,58,6.0,10.0,97,0.00,,,0.00,Wunderground v.1.15,2013-02-27 06:29:00,
2013-02-27 01:32:00,32.4,31.6,29.56,East,79,4.0,7.0,97,0.00,,,0.00,Wunderground v.1.15,2013-02-27 06:32:00,
2013-02-27 01:33:00,32.4,31.6,29.56,East,84,3.0,7.0,97,0.00,,,0.00,Wunderground v.1.15,2013-02-27 06:33:00,
2013-02-27 01:34:00,32.4,31.6,29.56,East,86,4.0,7.0,97,0.00,,,0.00,Wunderground v.1.15,2013-02-27 06:34:00,
2013-02-27 01:38:00,32.4,31.6,29.56,East,89,5.0,9.0,97,0.00,,,0.00,Wunderground v.1.15,2013-02-27 06:38:00,
2013-02-27 01:40:00,32.3,31.5,29.56,East,84,3.0,5.0,97,0.00,,,0.00,Wunderground v.1.15,2013-02-27 06:40:00,
2013-02-27 01:42:00,32.3,31.5,29.56,East,89,7.0,7.0,97,0.00,,,0.00,Wunderground v.1.15,2013-02-27 06:42:00,
2013-02-27 01:44:00,32.3,31.5,29.56,East,90,4.0,7.0,97,0.00,,,0.00,Wunderground v.1.15,2013-02-27 06:44:00,
2013-02-27 01:45:00,32.4,31.6,29.56,East,88,7.0,7.0,97,0.00,,,0.00,Wunderground v.1.15,2013-02-27 06:45:00,
2013-02-27 01:47:00,32.4,31.6,29.56,ENE,60,4.0,7.0,97,0.00,,,0.00,Wunderground v.1.15,2013-02-27 06:47:00,
2013-02-27 01:50:00,32.3,31.5,29.56,East,87,2.0,5.0,97,0.00,,,0.00,Wunderground v.1.15,2013-02-27 06:50:00,
2013-02-27 01:51:00,32.3,31.5,29.56,East,96,7.0,7.0,97,0.00,,,0.00,Wunderground v.1.15,2013-02-27 06:51:00,
2013-02-27 01:52:00,32.3,31.5,29.56,ENE,78,2.0,7.0,97,0.00,,,0.00,Wunderground v.1.15,2013-02-27 06:52:00,
2013-02-27 01:55:00,32.3,31.5,29.56,ENE,70,3.0,7.0,97,0.00,,,0.00,Wunderground v.1.15,2013-02-27 06:55:00,
2013-02-27 01:57:00,32.3,31.5,29.56,East,88,2.0,7.0,97,0.00,,,0.00,Wunderground v.1.15,2013-02-27 06:57:00,
2013-02-27 02:00:00,32.3,31.5,29.56,East,84,4.0,5.0,97,0.00,,,0.00,Wunderground v.1.15,2013-02-27 07:00:00,
2013-02-27 02:02:00,32.2,31.4,29.56,East,88,6.0,7.0,97,0.00,,,0.00,Wunderground v.1.15,2013-02-27 07:02:00,
2013-02-27 02:05:00,32.2,31.4,29.56,East,79,3.0,7.0,97,0.00,,,0.00,Wunderground v.1.15,2013-02-27 07:05:00,
2013-02-27 02:06:00,32.2,31.4,29.56,East,89,5.0,7.0,97,0.00,,,0.00,Wunderground v.1.15,2013-02-27 07:06:00,
2013-02-27 02:07:00,32.2,31.4,29.56,East,86,4.0,7.0,97,0.00,,,0.00,Wunderground v.1.15,2013-02-27 07:07:00,
2013-02-27 02:10:00,32.2,31.4,29.56,East,84,5.0,5.0,97,0.00,,,0.00,Wunderground v.1.15,2013-02-27 07:10:00,
2013-02-27 02:11:00,32.2,31.4,29.56,East,82,5.0,6.0,97,0.00,,,0.00,Wunderground v.1.15,2013-02-27 07:11:00,
2013-02-27 02:12:00,32.2,31.4,29.55,East,79,4.0,6.0,97,0.00,,,0.00,Wunderground v.1.15,2013-02-27 07:12:00,
2013-02-27 02:15:00,32.2,31.4,29.56,East,87,4.0,6.0,97,0.00,,,0.00,Wunderground v.1.15,2013-02-27 07:15:00,
2013-02-27 02:16:00,32.2,31.4,29.55,ENE,72,4.0,6.0,97,0.00,,,0.00,Wunderground v.1.15,2013-02-27 07:16:00,
2013-02-27 02:18:00,32.2,31.4,29.56,East,89,8.0,8.0,97,0.00,,,0.00,Wunderground v.1.15,2013-02-27 07:18:00,
2013-02-27 02:20:00,32.2,31.4,29.55,ENE,65,2.0,4.0,97,0.00,,,0.00,Wunderground v.1.15,2013-02-27 07:20:00,
2013-02-27 02:21:00,32.2,31.4,29.55,ENE,67,2.0,4.0,97,0.00,,,0.00,Wunderground v.1.15,2013-02-27 07:21:00,
2013-02-27 02:23:00,32.2,31.4,29.55,East,91,4.0,4.0,97,0.00,,,0.00,Wunderground v.1.15,2013-02-27 07:23:00,
2013-02-27 02:25:00,32.2,31.4,29.55,East,92,7.0,8.0,97,0.00,,,0.00,Wunderground v.1.15,2013-02-27 07:25:00,
2013-02-27 02:26:00,32.2,31.4,29.55,ENE,76,7.0,8.0,97,0.00,,,0.00,Wunderground v.1.15,2013-02-27 07:26:00,
2013-02-27 02:28:00,32.2,31.4,29.56,East,89,5.0,8.0,97,0.00,,,0.00,Wunderground v.1.15,2013-02-27 07:28:00,
2013-02-27 02:31:00,32.2,31.4,29.56,ENE,71,3.0,4.0,97,0.00,,,0.00,Wunderground v.1.15,2013-02-27 07:31:00,
2013-02-27 02:32:00,32.2,31.4,29.55,East,82,5.0,8.0,97,0.00,,,0.00,Wunderground v.1.15,2013-02-27 07:32:00,
2013-02-27 02:33:00,32.2,31.4,29.55,East,82,2.0,8.0,97,0.00,,,0.00,Wunderground v.1.15,2013-02-27 07:33:00,
2013-02-27 02:36:00,32.3,31.5,29.55,NE,37,5.0,8.0,97,0.00,,,0.00,Wunderground v.1.15,2013-02-27 07:36:00,
2013-02-27 02:37:00,32.2,31.4,29.55,East,81,3.0,8.0,97,0.00,,,0.00,Wunderground v.1.15,2013-02-27 07:37:00,
2013-02-27 02:38:00,32.3,31.5,29.55,East,98,3.0,8.0,97,0.00,,,0.01,Wunderground v.1.15,2013-02-27 07:38:00,
2013-02-27 02:41:00,32.3,31.5,29.55,ESE,104,5.0,7.0,97,0.00,,,0.01,Wunderground v.1.15,2013-02-27 07:41:00,
2013-02-27 02:42:00,32.3,31.5,29.55,ENE,78,3.0,7.0,97,0.00,,,0.01,Wunderground v.1.15,2013-02-27 07:42:00,
2013-02-27 02:43:00,32.3,31.5,29.55,ENE,75,3.0,7.0,97,0.00,,,0.01,Wunderground v.1.15,2013-02-27 07:43:00,
2013-02-27 02:46:00,32.3,31.5,29.55,East,93,2.0,7.0,97,0.00,,,0.01,Wunderground v.1.15,2013-02-27 07:46:00,
2013-02-27 02:47:00,32.3,31.5,29.55,East,90,3.0,7.0,97,0.00,,,0.01,Wunderground v.1.15,2013-02-27 07:47:00,
2013-02-27 02:49:00,32.3,31.5,29.55,East,94,2.0,7.0,97,0.00,,,0.01,Wunderground v.1.15,2013-02-27 07:49:00,
2013-02-27 02:51:00,32.2,31.4,29.55,ENE,75,2.0,6.0,97,0.00,,,0.01,Wunderground v.1.15,2013-02-27 07:51:00,
2013-02-27 02:52:00,32.2,31.4,29.55,East,84,3.0,6.0,97,0.00,,,0.01,Wunderground v.1.15,2013-02-27 07:52:00,
2013-02-27 02:54:00,32.2,31.4,29.55,ENE,76,2.0,6.0,97,0.00,,,0.01,Wunderground v.1.15,2013-02-27 07:54:00,
2013-02-27 02:56:00,32.2,31.4,29.55,East,84,3.0,10.0,97,0.00,,,0.01,Wunderground v.1.15,2013-02-27 07:56:00,
2013-02-27 02:57:00,32.2,31.4,29.55,ENE,76,4.0,10.0,97,0.00,,,0.01,Wunderground v.1.15,2013-02-27 07:57:00,
2013-02-27 02:59:00,32.2,31.4,29.55,East,81,5.0,10.0,97,0.00,,,0.01,Wunderground v.1.15,2013-02-27 07:59:00,
2013-02-27 03:01:00,32.3,31.5,29.54,East,96,5.0,8.0,97,0.00,,,0.01,Wunderground v.1.15,2013-02-27 08:01:00,
2013-02-27 03:02:00,32.3,31.5,29.54,East,84,4.0,8.0,97,0.00,,,0.01,Wunderground v.1.15,2013-02-27 08:02:00,
2013-02-27 03:04:00,32.2,31.4,29.54,East,96,4.0,8.0,97,0.00,,,0.01,Wunderground v.1.15,2013-02-27 08:04:00,
2013-02-27 03:06:00,32.2,31.4,29.54,ENE,75,3.0,8.0,97,0.00,,,0.01,Wunderground v.1.15,2013-02-27 08:06:00,
2013-02-27 03:07:00,32.2,31.4,29.54,East,92,2.0,8.0,97,0.00,,,0.01,Wunderground v.1.15,2013-02-27 08:07:00,
2013-02-27 03:09:00,32.2,31.4,29.54,SE,124,4.0,8.0,97,0.00,,,0.01,Wunderground v.1.15,2013-02-27 08:09:00,
2013-02-27 03:12:00,32.2,31.4,29.54,East,83,4.0,5.0,97,0.00,,,0.01,Wunderground v.1.15,2013-02-27 08:12:00,
2013-02-27 03:13:00,32.2,31.4,29.54,East,84,5.0,7.0,97,0.00,,,0.01,Wunderground v.1.15,2013-02-27 08:13:00,
2013-02-27 03:14:00,32.2,31.4,29.54,East,90,7.0,7.0,97,0.00,,,0.01,Wunderground v.1.15,2013-02-27 08:14:00,
2013-02-27 03:17:00,32.2,31.4,29.54,East,87,5.0,7.0,97,0.00,,,0.01,Wunderground v.1.15,2013-02-27 08:17:00,
2013-02-27 03:18:00,32.2,31.4,29.54,East,91,4.0,7.0,97,0.00,,,0.01,Wunderground v.1.15,2013-02-27 08:18:00,
2013-02-27 03:20:00,32.2,31.4,29.54,ENE,75,2.0,4.0,97,0.00,,,0.01,Wunderground v.1.15,2013-02-27 08:20:00,
2013-02-27 03:22:00,32.2,31.4,29.54,East,91,6.0,7.0,97,0.00,,,0.01,Wunderground v.1.15,2013-02-27 08:22:00,
2013-02-27 03:23:00,32.2,31.4,29.54,East,88,4.0,7.0,97,0.00,,,0.01,Wunderground v.1.15,2013-02-27 08:23:00,
2013-02-27 03:25:00,32.2,31.4,29.54,ENE,69,3.0,7.0,97,0.00,,,0.01,Wunderground v.1.15,2013-02-27 08:25:00,
2013-02-27 03:27:00,32.2,31.4,29.53,ENE,71,3.0,7.0,97,0.00,,,0.01,Wunderground v.1.15,2013-02-27 08:27:00,
2013-02-27 03:28:00,32.2,31.4,29.53,East,84,2.0,7.0,97,0.00,,,0.01,Wunderground v.1.15,2013-02-27 08:28:00,
2013-02-27 03:30:00,32.2,31.4,29.53,ESE,103,5.0,5.0,97,0.00,,,0.01,Wunderground v.1.15,2013-02-27 08:30:00,
2013-02-27 03:32:00,32.2,31.4,29.53,East,94,3.0,5.0,97,0.00,,,0.01,Wunderground v.1.15,2013-02-27 08:32:00,
2013-02-27 03:33:00,32.2,31.4,29.53,ENE,74,2.0,5.0,97,0.00,,,0.01,Wunderground v.1.15,2013-02-27 08:33:00,
2013-02-27 03:34:00,32.2,31.4,29.53,ENE,76,2.0,5.0,97,0.00,,,0.01,Wunderground v.1.15,2013-02-27 08:34:00,
2013-02-27 03:35:00,32.2,31.4,29.53,ENE,77,3.0,5.0,97,0.00,,,0.01,Wunderground v.1.15,2013-02-27 08:35:00,
2013-02-27 03:38:00,32.2,31.4,29.53,ENE,70,2.0,8.0,97,0.00,,,0.01,Wunderground v.1.15,2013-02-27 08:38:00,
2013-02-27 03:39:00,32.2,31.4,29.53,ENE,74,3.0,8.0,97,0.00,,,0.01,Wunderground v.1.15,2013-02-27 08:39:00,
2013-02-27 03:40:00,32.2,31.4,29.53,East,100,6.0,8.0,97,0.00,,,0.01,Wunderground v.1.15,2013-02-27 08:40:00,
2013-02-27 03:43:00,32.2,31.4,29.53,East,80,2.0,8.0,97,0.00,,,0.01,Wunderground v.1.15,2013-02-27 08:43:00,
2013-02-27 03:44:00,32.2,31.4,29.53,East,83,3.0,8.0,97,0.00,,,0.01,Wunderground v.1.15,2013-02-27 08:44:00,
2013-02-27 03:45:00,32.2,31.4,29.53,ENE,70,2.0,8.0,97,0.00,,,0.01,Wunderground v.1.15,2013-02-27 08:45:00,
2013-02-27 03:48:00,32.2,31.4,29.53,East,100,6.0,8.0,97,0.00,,,0.01,Wunderground v.1.15,2013-02-27 08:48:00,
2013-02-27 03:49:00,32.2,31.4,29.53,East,99,3.0,8.0,97,0.00,,,0.01,Wunderground v.1.15,2013-02-27 08:49:00,
2013-02-27 03:50:00,32.2,31.4,29.53,East,94,6.0,8.0,97,0.00,,,0.01,Wunderground v.1.15,2013-02-27 08:50:00,
2013-02-27 03:53:00,32.2,31.4,29.53,East,84,5.0,8.0,97,0.00,,,0.01,Wunderground v.1.15,2013-02-27 08:53:00,
2013-02-27 03:54:00,32.3,31.5,29.53,East,90,4.0,8.0,97,0.00,,,0.01,Wunderground v.1.15,2013-02-27 08:54:00,
2013-02-27 03:55:00,32.2,31.4,29.53,East,88,2.0,8.0,97,0.00,,,0.01,Wunderground v.1.15,2013-02-27 08:55:00,
2013-02-27 03:58:00,32.3,31.5,29.53,East,88,2.0,8.0,97,0.00,,,0.01,Wunderground v.1.15,2013-02-27 08:58:00,
2013-02-27 03:59:00,32.2,31.4,29.53,ENE,66,2.0,8.0,97,0.00,,,0.01,Wunderground v.1.15,2013-02-27 08:59:00,
2013-02-27 04:01:00,32.2,31.4,29.53,SE,126,3.0,4.0,97,0.00,,,0.01,Wunderground v.1.15,2013-02-27 09:01:00,
2013-02-27 04:03:00,32.2,31.4,29.53,ESE,105,4.0,5.0,97,0.00,,,0.01,Wunderground v.1.15,2013-02-27 09:03:00,
2013-02-27 04:04:00,32.2,31.4,29.53,ENE,67,3.0,5.0,97,0.00,,,0.01,Wunderground v.1.15,2013-02-27 09:04:00,
2013-02-27 04:06:00,32.2,31.4,29.53,East,83,3.0,5.0,97,0.00,,,0.01,Wunderground v.1.15,2013-02-27 09:06:00,
2013-02-27 04:08:00,32.2,31.4,29.53,East,82,5.0,5.0,97,0.00,,,0.01,Wunderground v.1.15,2013-02-27 09:08:00,
2013-02-27 04:09:00,32.2,31.4,29.53,East,91,7.0,8.0,97,0.00,,,0.01,Wunderground v.1.15,2013-02-27 09:09:00,
2013-02-27 04:11:00,32.2,31.4,29.53,East,91,5.0,5.0,97,0.00,,,0.01,Wunderground v.1.15,2013-02-27 09:11:00,
2013-02-27 04:13:00,32.2,31.4,29.53,East,84,2.0,5.0,97,0.00,,,0.01,Wunderground v.1.15,2013-02-27 09:13:00,
2013-02-27 04:14:00,32.2,31.4,29.53,East,84,2.0,5.0,97,0.00,,,0.01,Wunderground v.1.15,2013-02-27 09:14:00,
2013-02-27 04:16:00,32.2,31.4,29.53,East,86,4.0,5.0,97,0.00,,,0.01,Wunderground v.1.15,2013-02-27 09:16:00,
2013-02-27 04:18:00,32.2,31.4,29.53,ENE,76,2.0,5.0,97,0.00,,,0.01,Wunderground v.1.15,2013-02-27 09:18:00,
2013-02-27 04:19:00,32.2,31.4,29.53,East,82,3.0,5.0,97,0.00,,,0.01,Wunderground v.1.15,2013-02-27 09:19:00,
2013-02-27 04:21:00,32.2,31.4,29.53,East,85,1.0,3.0,97,0.00,,,0.01,Wunderground v.1.15,2013-02-27 09:21:00,
2013-02-27 04:23:00,32.1,31.3,29.53,ENE,72,2.0,5.0,97,0.00,,,0.01,Wunderground v.1.15,2013-02-27 09:23:00,
2013-02-27 04:24:00,32.2,31.4,29.53,ENE,67,2.0,5.0,97,0.00,,,0.01,Wunderground v.1.15,2013-02-27 09:24:00,
2013-02-27 04:26:00,32.2,31.4,29.53,East,95,3.0,5.0,97,0.00,,,0.01,Wunderground v.1.15,2013-02-27 09:26:00,
2013-02-27 04:28:00,32.1,31.3,29.53,ENE,67,3.0,5.0,97,0.00,,,0.01,Wunderground v.1.15,2013-02-27 09:28:00,
2013-02-27 04:29:00,32.1,31.3,29.53,East,88,2.0,5.0,97,0.00,,,0.01,Wunderground v.1.15,2013-02-27 09:29:00,
2013-02-27 04:30:00,32.2,31.4,29.53,East,87,1.0,2.0,97,0.00,,,0.01,Wunderground v.1.15,2013-02-27 09:30:00,
2013-02-27 04:31:00,32.1,31.3,29.53,East,98,7.0,7.0,97,0.00,,,0.01,Wunderground v.1.15,2013-02-27 09:31:00,
2013-02-27 04:33:00,32.1,31.3,29.53,East,83,4.0,7.0,97,0.00,,,0.01,Wunderground v.1.15,2013-02-27 09:33:00,
2013-02-27 04:34:00,32.2,31.4,29.53,East,87,4.0,7.0,97,0.00,,,0.01,Wunderground v.1.15,2013-02-27 09:34:00,
2013-02-27 04:35:00,32.1,31.3,29.53,East,86,4.0,7.0,97,0.00,,,0.01,Wunderground v.1.15,2013-02-27 09:35:00,
2013-02-27 04:36:00,32.1,31.3,29.53,East,84,3.0,7.0,97,0.00,,,0.01,Wunderground v.1.15,2013-02-27 09:36:00,
2013-02-27 04:38:00,32.2,31.4,29.53,ENE,74,8.0,8.0,97,0.00,,,0.01,Wunderground v.1.15,2013-02-27 09:38:00,
2013-02-27 04:39:00,32.2,31.4,29.53,East,94,4.0,8.0,97,0.00,,,0.01,Wunderground v.1.15,2013-02-27 09:39:00,
2013-02-27 04:40:00,32.2,31.4,29.53,East,91,2.0,4.0,97,0.00,,,0.01,Wunderground v.1.15,2013-02-27 09:40:00,
2013-02-27 04:42:00,32.1,31.3,29.53,East,89,3.0,5.0,97,0.00,,,0.01,Wunderground v.1.15,2013-02-27 09:42:00,
2013-02-27 04:44:00,32.1,31.3,29.53,ENE,67,2.0,5.0,97,0.00,,,0.01,Wunderground v.1.15,2013-02-27 09:44:00,
2013-02-27 04:45:00,32.1,31.3,29.53,East,92,3.0,5.0,97,0.00,,,0.01,Wunderground v.1.15,2013-02-27 09:45:00,
2013-02-27 04:47:00,32.1,31.3,29.53,ENE,76,2.0,5.0,97,0.00,,,0.01,Wunderground v.1.15,2013-02-27 09:47:00,
2013-02-27 04:49:00,32.1,31.3,29.53,ENE,74,3.0,5.0,97,0.00,,,0.01,Wunderground v.1.15,2013-02-27 09:49:00,
2013-02-27 04:50:00,32.1,31.3,29.53,East,79,2.0,3.0,97,0.00,,,0.01,Wunderground v.1.15,2013-02-27 09:50:00,
2013-02-27 04:52:00,32.1,31.3,29.53,East,79,4.0,5.0,97,0.00,,,0.01,Wunderground v.1.15,2013-02-27 09:52:00,
2013-02-27 04:55:00,32.1,31.3,29.53,East,96,2.0,6.0,97,0.00,,,0.01,Wunderground v.1.15,2013-02-27 09:55:00,
2013-02-27 04:56:00,32.1,31.3,29.53,East,82,2.0,6.0,97,0.00,,,0.01,Wunderground v.1.15,2013-02-27 09:56:00,
2013-02-27 04:57:00,32.2,31.4,29.53,East,79,3.0,6.0,97,0.00,,,0.01,Wunderground v.1.15,2013-02-27 09:57:00,
2013-02-27 05:00:00,32.1,31.3,29.53,ENE,72,3.0,4.0,97,0.00,,,0.01,Wunderground v.1.15,2013-02-27 10:00:00,
2013-02-27 05:01:00,32.1,31.3,29.53,East,84,2.0,4.0,97,0.00,,,0.01,Wunderground v.1.15,2013-02-27 10:01:00,
2013-02-27 05:02:00,32.1,31.3,29.53,East,93,4.0,6.0,97,0.00,,,0.01,Wunderground v.1.15,2013-02-27 10:02:00,
2013-02-27 05:05:00,32.2,31.4,29.53,East,84,2.0,6.0,97,0.00,,,0.01,Wunderground v.1.15,2013-02-27 10:05:00,
2013-02-27 05:06:00,32.1,31.3,29.53,East,80,5.0,6.0,97,0.00,,,0.01,Wunderground v.1.15,2013-02-27 10:06:00,
2013-02-27 05:07:00,32.2,31.4,29.53,ENE,74,1.0,7.0,97,0.00,,,0.01,Wunderground v.1.15,2013-02-27 10:07:00,
2013-02-27 05:10:00,32.1,31.3,29.53,ENE,75,3.0,3.0,97,0.00,,,0.01,Wunderground v.1.15,2013-02-27 10:10:00,
2013-02-27 05:11:00,32.1,31.3,29.53,ESE,103,3.0,5.0,97,0.00,,,0.01,Wunderground v.1.15,2013-02-27 10:11:00,
2013-02-27 05:12:00,32.1,31.3,29.53,East,86,2.0,5.0,97,0.00,,,0.01,Wunderground v.1.15,2013-02-27 10:12:00,
2013-02-27 05:15:00,32.1,31.3,29.53,East,95,5.0,5.0,97,0.00,,,0.01,Wunderground v.1.15,2013-02-27 10:15:00,
2013-02-27 05:16:00,32.1,31.3,29.53,East,91,3.0,5.0,97,0.00,,,0.01,Wunderground v.1.15,2013-02-27 10:16:00,
2013-02-27 05:18:00,32.2,31.4,29.53,East,86,1.0,5.0,97,0.00,,,0.01,Wunderground v.1.15,2013-02-27 10:18:00,
2013-02-27 05:20:00,32.2,31.4,29.53,East,91,3.0,6.0,97,0.00,,,0.01,Wunderground v.1.15,2013-02-27 10:20:00,
2013-02-27 05:21:00,32.2,31.4,29.53,East,96,2.0,6.0,97,0.00,,,0.01,Wunderground v.1.15,2013-02-27 10:21:00,
2013-02-27 05:22:00,32.2,31.4,29.53,East,91,2.0,6.0,97,0.00,,,0.01,Wunderground v.1.15,2013-02-27 10:22:00,
2013-02-27 05:26:00,32.2,31.4,29.53,East,82,4.0,8.0,97,0.00,,,0.01,Wunderground v.1.15,2013-02-27 10:26:00,
2013-02-27 05:27:00,32.2,31.4,29.53,East,98,6.0,8.0,97,0.00,,,0.01,Wunderground v.1.15,2013-02-27 10:27:00,
2013-02-27 05:31:00,32.2,31.4,29.53,ENE,76,1.0,3.0,97,0.00,,,0.01,Wunderground v.1.15,2013-02-27 10:31:00,
2013-02-27 05:33:00,32.2,31.4,29.53,East,83,5.0,6.0,97,0.00,,,0.01,Wunderground v.1.15,2013-02-27 10:33:00,
2013-02-27 05:36:00,32.2,31.4,29.53,East,89,5.0,6.0,97,0.00,,,0.01,Wunderground v.1.15,2013-02-27 10:36:00,
2013-02-27 05:38:00,32.2,31.4,29.53,East,82,2.0,6.0,97,0.00,,,0.01,Wunderground v.1.15,2013-02-27 10:38:00,
2013-02-27 05:41:00,32.2,31.4,29.53,East,88,5.0,6.0,97,0.00,,,0.01,Wunderground v.1.15,2013-02-27 10:41:00,
2013-02-27 05:42:00,32.2,31.4,29.53,East,97,4.0,6.0,97,0.00,,,0.01,Wunderground v.1.15,2013-02-27 10:42:00,
2013-02-27 05:43:00,32.2,31.4,29.53,ENE,67,4.0,6.0,97,0.00,,,0.01,Wunderground v.1.15,2013-02-27 10:43:00,
2013-02-27 05:46:00,32.2,31.4,29.53,East,91,4.0,6.0,97,0.00,,,0.00,Wunderground v.1.15,2013-02-27 10:46:00,
2013-02-27 05:47:00,32.2,31.4,29.53,ENE,78,3.0,6.0,97,0.00,,,0.00,Wunderground v.1.15,2013-02-27 10:47:00,
2013-02-27 05:48:00,32.2,31.4,29.53,East,95,3.0,6.0,97,0.00,,,0.00,Wunderground v.1.15,2013-02-27 10:48:00,
2013-02-27 05:51:00,32.2,31.4,29.53,East,80,3.0,6.0,97,0.00,,,0.00,Wunderground v.1.15,2013-02-27 10:51:00,
2013-02-27 05:52:00,32.2,31.4,29.53,NE,56,4.0,6.0,97,0.00,,,0.00,Wunderground v.1.15,2013-02-27 10:52:00,
2013-02-27 05:53:00,32.2,31.4,29.53,East,92,6.0,6.0,97,0.00,,,0.00,Wunderground v.1.15,2013-02-27 10:53:00,
2013-02-27 05:54:00,32.3,31.5,29.53,East,88,4.0,6.0,97,0.00,,,0.00,Wunderground v.1.15,2013-02-27 10:54:00,
2013-02-27 05:56:00,32.3,31.5,29.53,East,91,4.0,6.0,97,0.00,,,0.00,Wunderground v.1.15,2013-02-27 10:56:00,
2013-02-27 05:57:00,32.2,31.4,29.53,East,91,4.0,6.0,97,0.00,,,0.00,Wunderground v.1.15,2013-02-27 10:57:00,
2013-02-27 05:58:00,32.3,31.5,29.53,East,98,2.0,6.0,97,0.00,,,0.00,Wunderground v.1.15,2013-02-27 10:58:00,
2013-02-27 05:59:00,32.3,31.5,29.53,East,85,3.0,6.0,97,0.00,,,0.00,Wunderground v.1.15,2013-02-27 10:59:00,
2013-02-27 06:02:00,32.3,31.5,29.53,East,82,5.0,6.0,97,0.00,,,0.00,Wunderground v.1.15,2013-02-27 11:02:00,
2013-02-27 06:04:00,32.3,31.5,29.53,East,79,2.0,6.0,97,0.00,,,0.00,Wunderground v.1.15,2013-02-27 11:04:00,
2013-02-27 06:07:00,32.3,31.5,29.53,East,84,4.0,6.0,97,0.00,,,0.00,Wunderground v.1.15,2013-02-27 11:07:00,
2013-02-27 06:09:00,32.3,31.5,29.53,East,90,5.0,6.0,97,0.00,,,0.00,Wunderground v.1.15,2013-02-27 11:09:00,
2013-02-27 06:12:00,32.3,31.5,29.53,East,92,2.0,4.0,97,0.00,,,0.00,Wunderground v.1.15,2013-02-27 11:12:00,
2013-02-27 06:14:00,32.3,31.5,29.53,ENE,70,3.0,5.0,97,0.00,,,0.00,Wunderground v.1.15,2013-02-27 11:14:00,
2013-02-27 06:17:00,32.3,31.5,29.53,East,86,3.0,5.0,97,0.00,,,0.00,Wunderground v.1.15,2013-02-27 11:17:00,
2013-02-27 06:18:00,32.3,31.5,29.53,East,89,4.0,7.0,97,0.00,,,0.00,Wunderground v.1.15,2013-02-27 11:18:00,
2013-02-27 06:19:00,32.3,31.5,29.53,East,95,3.0,7.0,97,0.00,,,0.00,Wunderground v.1.15,2013-02-27 11:19:00,
2013-02-27 06:22:00,32.3,31.5,29.54,East,83,2.0,5.0,97,0.00,,,0.00,Wunderground v.1.15,2013-02-27 11:22:00,
2013-02-27 06:23:00,32.3,31.5,29.54,East,82,3.0,5.0,97,0.00,,,0.00,Wunderground v.1.15,2013-02-27 11:23:00,
2013-02-27 06:24:00,32.3,31.5,29.54,East,88,2.0,5.0,97,0.00,,,0.00,Wunderground v.1.15,2013-02-27 11:24:00,
2013-02-27 06:25:00,32.3,31.5,29.54,East,95,3.0,5.0,97,0.00,,,0.00,Wunderground v.1.15,2013-02-27 11:25:00,
2013-02-27 06:27:00,32.3,31.5,29.54,East,82,3.0,5.0,97,0.00,,,0.00,Wunderground v.1.15,2013-02-27 11:27:00,
2013-02-27 06:28:00,32.3,31.5,29.54,East,80,1.0,5.0,97,0.00,,,0.00,Wunderground v.1.15,2013-02-27 11:28:00,
2013-02-27 06:30:00,32.3,31.5,29.54,East,82,2.0,3.0,97,0.00,,,0.00,Wunderground v.1.15,2013-02-27 11:30:00,
2013-02-27 06:32:00,32.3,31.5,29.54,ENE,77,2.0,4.0,97,0.00,,,0.00,Wunderground v.1.15,2013-02-27 11:32:00,
2013-02-27 06:33:00,32.3,31.5,29.54,ENE,77,2.0,4.0,97,0.00,,,0.00,Wunderground v.1.15,2013-02-27 11:33:00,
2013-02-27 06:35:00,32.3,31.5,29.54,ENE,74,1.0,4.0,97,0.00,,,0.00,Wunderground v.1.15,2013-02-27 11:35:00,
2013-02-27 06:37:00,32.3,31.5,29.54,ENE,70,4.0,5.0,97,0.00,,,0.00,Wunderground v.1.15,2013-02-27 11:37:00,
2013-02-27 06:38:00,32.3,31.5,29.54,East,96,3.0,6.0,97,0.00,,,0.00,Wunderground v.1.15,2013-02-27 11:38:00,
2013-02-27 06:40:00,32.3,31.5,29.54,East,91,2.0,3.0,97,0.00,,,0.00,Wunderground v.1.15,2013-02-27 11:40:00,
2013-02-27 06:41:00,32.3,31.5,29.54,East,91,4.0,4.0,97,0.00,,,0.00,Wunderground v.1.15,2013-02-27 11:41:00,
2013-02-27 06:42:00,32.3,31.5,29.54,East,91,2.0,4.0,97,0.00,,,0.00,Wunderground v.1.15,2013-02-27 11:42:00,
2013-02-27 06:44:00,32.3,31.5,29.54,East,91,2.0,4.0,97,0.00,,,0.00,Wunderground v.1.15,2013-02-27 11:44:00,
2013-02-27 06:45:00,32.3,31.5,29.54,East,101,2.0,4.0,97,0.00,,,0.00,Wunderground v.1.15,2013-02-27 11:45:00,
2013-02-27 06:46:00,32.3,31.5,29.54,East,84,2.0,4.0,97,0.00,,,0.00,Wunderground v.1.15,2013-02-27 11:46:00,
2013-02-27 06:48:00,32.3,31.5,29.54,East,93,6.0,6.0,97,0.00,,,0.00,Wunderground v.1.15,2013-02-27 11:48:00,
2013-02-27 06:49:00,32.3,31.5,29.54,East,91,3.0,6.0,97,0.00,,,0.00,Wunderground v.1.15,2013-02-27 11:49:00,
2013-02-27 06:51:00,32.3,31.5,29.54,ENE,68,2.0,3.0,97,0.00,,,0.00,Wunderground v.1.15,2013-02-27 11:51:00,
2013-02-27 06:52:00,32.3,31.5,29.54,ENE,60,3.0,3.0,97,0.00,,,0.00,Wunderground v.1.15,2013-02-27 11:52:00,
2013-02-27 06:53:00,32.3,31.5,29.54,East,89,2.0,3.0,97,0.00,,,0.00,Wunderground v.1.15,2013-02-27 11:53:00,
2013-02-27 06:54:00,32.3,31.5,29.54,East,80,4.0,4.0,97,0.00,,,0.00,Wunderground v.1.15,2013-02-27 11:54:00,
2013-02-27 06:56:00,32.3,31.5,29.54,East,83,1.0,5.0,97,0.00,,,0.00,Wunderground v.1.15,2013-02-27 11:56:00,
2013-02-27 06:57:00,32.3,31.5,29.54,East,85,1.0,5.0,97,0.00,,,0.00,Wunderground v.1.15,2013-02-27 11:57:00,
2013-02-27 06:58:00,32.3,31.5,29.54,East,90,2.0,5.0,97,0.00,,,0.00,Wunderground v.1.15,2013-02-27 11:58:00,
2013-02-27 06:59:00,32.3,31.5,29.54,ENE,70,1.0,5.0,97,0.00,,,0.00,Wunderground v.1.15,2013-02-27 11:59:00,
2013-02-27 07:02:00,32.3,31.5,29.54,East,93,2.0,4.0,97,0.00,,,0.00,Wunderground v.1.15,2013-02-27 12:02:00,
2013-02-27 07:03:00,32.3,31.5,29.54,East,81,1.0,4.0,97,0.00,,,0.00,Wunderground v.1.15,2013-02-27 12:03:00,
2013-02-27 07:04:00,32.3,31.5,29.54,East,100,3.0,4.0,97,0.00,,,0.00,Wunderground v.1.15,2013-02-27 12:04:00,
2013-02-27 07:07:00,32.4,31.6,29.54,East,91,3.0,4.0,97,0.00,,,0.00,Wunderground v.1.15,2013-02-27 12:07:00,
2013-02-27 07:08:00,32.3,31.5,29.54,East,91,1.0,4.0,97,0.00,,,0.00,Wunderground v.1.15,2013-02-27 12:08:00,
2013-02-27 07:09:00,32.3,31.5,29.54,East,82,3.0,3.0,97,0.00,,,0.00,Wunderground v.1.15,2013-02-27 12:09:00,
2013-02-27 07:12:00,32.4,31.6,29.54,East,97,2.0,5.0,97,0.00,,,0.00,Wunderground v.1.15,2013-02-27 12:12:00,
2013-02-27 07:14:00,32.4,31.6,29.54,East,94,2.0,5.0,97,0.00,,,0.00,Wunderground v.1.15,2013-02-27 12:14:00,
2013-02-27 07:15:00,32.3,31.5,29.54,East,96,1.0,5.0,97,0.00,,,0.00,Wunderground v.1.15,2013-02-27 12:15:00,
2013-02-27 07:17:00,32.4,31.6,29.54,East,82,2.0,5.0,97,0.00,,,0.00,Wunderground v.1.15,2013-02-27 12:17:00,
2013-02-27 07:19:00,32.4,31.6,29.54,East,89,1.0,5.0,97,0.00,,,0.00,Wunderground v.1.15,2013-02-27 12:19:00,
2013-02-27 07:20:00,32.4,31.6,29.54,ENE,69,2.0,3.0,97,0.00,,,0.00,Wunderground v.1.15,2013-02-27 12:20:00,
2013-02-27 07:22:00,32.4,31.6,29.54,East,95,2.0,3.0,97,0.00,,,0.00,Wunderground v.1.15,2013-02-27 12:22:00,
2013-02-27 07:23:00,32.4,31.6,29.54,East,96,3.0,3.0,97,0.00,,,0.00,Wunderground v.1.15,2013-02-27 12:23:00,
2013-02-27 07:24:00,32.4,31.6,29.54,East,94,2.0,3.0,97,0.00,,,0.00,Wunderground v.1.15,2013-02-27 12:24:00,
2013-02-27 07:26:00,32.4,31.6,29.54,East,94,1.0,3.0,97,0.00,,,0.00,Wunderground v.1.15,2013-02-27 12:26:00,
2013-02-27 07:27:00,32.4,31.6,29.54,East,91,1.0,3.0,97,0.00,,,0.00,Wunderground v.1.15,2013-02-27 12:27:00,
2013-02-27 07:28:00,32.4,31.6,29.54,ENE,77,1.0,3.0,97,0.00,,,0.00,Wunderground v.1.15,2013-02-27 12:28:00,
2013-02-27 07:29:00,32.4,31.6,29.54,East,82,1.0,3.0,97,0.00,,,0.00,Wunderground v.1.15,2013-02-27 12:29:00,
2013-02-27 07:31:00,32.4,31.6,29.54,East,93,2.0,4.0,97,0.00,,,0.00,Wunderground v.1.15,2013-02-27 12:31:00,
2013-02-27 07:32:00,32.4,31.6,29.55,East,94,1.0,4.0,97,0.00,,,0.00,Wunderground v.1.15,2013-02-27 12:32:00,
2013-02-27 07:33:00,32.4,31.6,29.55,East,98,2.0,4.0,97,0.00,,,0.00,Wunderground v.1.15,2013-02-27 12:33:00,
2013-02-27 07:34:00,32.4,31.6,29.55,East,99,1.0,4.0,97,0.00,,,0.00,Wunderground v.1.15,2013-02-27 12:34:00,
2013-02-27 07:36:00,32.4,31.6,29.55,East,86,1.0,4.0,97,0.00,,,0.00,Wunderground v.1.15,2013-02-27 12:36:00,
2013-02-27 07:38:00,32.4,31.6,29.55,SE,134,0.0,4.0,97,0.00,,,0.00,Wunderground v.1.15,2013-02-27 12:38:00,
2013-02-27 07:39:00,32.4,31.6,29.55,East,81,3.0,3.0,97,0.00,,,0.00,Wunderground v.1.15,2013-02-27 12:39:00,
2013-02-27 07:41:00,32.4,31.6,29.55,East,91,1.0,3.0,97,0.00,,,0.00,Wunderground v.1.15,2013-02-27 12:41:00,
2013-02-27 07:43:00,32.4,31.6,29.55,East,95,1.0,3.0,97,0.00,,,0.00,Wunderground v.1.15,2013-02-27 12:43:00,
2013-02-27 07:44:00,32.4,31.6,29.55,East,93,1.0,3.0,97,0.00,,,0.00,Wunderground v.1.15,2013-02-27 12:44:00,
2013-02-27 07:45:00,32.4,31.6,29.55,East,91,1.0,3.0,97,0.00,,,0.00,Wunderground v.1.15,2013-02-27 12:45:00,
2013-02-27 07:47:00,32.4,31.6,29.55,East,86,4.0,4.0,97,0.00,,,0.00,Wunderground v.1.15,2013-02-27 12:47:00,
2013-02-27 07:48:00,32.4,31.6,29.55,East,96,0.0,4.0,97,0.00,,,0.00,Wunderground v.1.15,2013-02-27 12:48:00,
2013-02-27 07:49:00,32.4,31.6,29.55,East,96,1.0,4.0,97,0.00,,,0.00,Wunderground v.1.15,2013-02-27 12:49:00,
2013-02-27 07:50:00,32.4,31.6,29.55,East,93,3.0,3.0,97,0.00,,,0.00,Wunderground v.1.15,2013-02-27 12:50:00,
2013-02-27 07:52:00,32.5,31.7,29.55,East,95,2.0,3.0,97,0.00,,,0.00,Wunderground v.1.15,2013-02-27 12:52:00,
2013-02-27 07:53:00,32.5,31.7,29.55,East,91,1.0,3.0,97,0.00,,,0.00,Wunderground v.1.15,2013-02-27 12:53:00,
2013-02-27 07:54:00,32.5,31.7,29.55,East,92,0.0,3.0,97,0.00,,,0.00,Wunderground v.1.15,2013-02-27 12:54:00,
2013-02-27 07:55:00,32.5,31.7,29.55,East,91,1.0,3.0,97,0.00,,,0.00,Wunderground v.1.15,2013-02-27 12:55:00,
2013-02-27 07:57:00,32.4,31.6,29.55,East,91,0.0,3.0,97,0.00,,,0.00,Wunderground v.1.15,2013-02-27 12:57:00,
2013-02-27 07:58:00,32.5,31.7,29.55,East,91,0.0,3.0,97,0.00,,,0.00,Wunderground v.1.15,2013-02-27 12:58:00,
2013-02-27 08:00:00,32.5,31.7,29.55,East,91,0.0,1.0,97,0.00,,,0.00,Wunderground v.1.15,2013-02-27 13:00:00,
2013-02-27 08:01:00,32.5,31.7,29.55,East,92,0.0,1.0,97,0.00,,,0.00,Wunderground v.1.15,2013-02-27 13:01:00,
2013-02-27 08:02:00,32.5,31.7,29.55,East,91,0.0,1.0,97,0.00,,,0.00,Wunderground v.1.15,2013-02-27 13:02:00,
2013-02-27 08:03:00,32.5,31.7,29.55,East,91,0.0,1.0,97,0.00,,,0.00,Wunderground v.1.15,2013-02-27 13:03:00,
2013-02-27 08:05:00,32.5,31.7,29.56,East,92,0.0,1.0,97,0.00,,,0.00,Wunderground v.1.15,2013-02-27 13:05:00,
2013-02-27 08:07:00,32.5,31.7,29.56,East,91,2.0,2.0,97,0.00,,,0.00,Wunderground v.1.15,2013-02-27 13:07:00,
2013-02-27 08:08:00,32.5,31.7,29.56,East,94,2.0,2.0,97,0.00,,,0.00,Wunderground v.1.15,2013-02-27 13:08:00,
2013-02-27 08:10:00,32.5,31.7,29.56,East,93,1.0,1.0,97,0.00,,,0.00,Wunderground v.1.15,2013-02-27 13:10:00,
2013-02-27 08:12:00,32.5,31.7,29.56,East,94,1.0,1.0,97,0.00,,,0.00,Wunderground v.1.15,2013-02-27 13:12:00,
2013-02-27 08:13:00,32.5,31.7,29.56,East,98,1.0,2.0,97,0.00,,,0.00,Wunderground v.1.15,2013-02-27 13:13:00,
2013-02-27 08:14:00,32.5,31.7,29.56,East,98,0.0,2.0,97,0.00,,,0.00,Wunderground v.1.15,2013-02-27 13:14:00,
2013-02-27 08:15:00,32.5,31.7,29.56,East,98,0.0,2.0,97,0.00,,,0.00,Wunderground v.1.15,2013-02-27 13:15:00,
2013-02-27 08:17:00,32.5,31.7,29.56,East,97,0.0,2.0,97,0.00,,,0.00,Wunderground v.1.15,2013-02-27 13:17:00,
2013-02-27 08:18:00,32.5,31.7,29.56,East,96,0.0,2.0,97,0.00,,,0.00,Wunderground v.1.15,2013-02-27 13:18:00,
2013-02-27 08:19:00,32.5,31.7,29.56,East,95,0.0,2.0,97,0.00,,,0.00,Wunderground v.1.15,2013-02-27 13:19:00,
2013-02-27 08:20:00,32.5,31.7,29.56,East,95,0.0,0.0,97,0.00,,,0.00,Wunderground v.1.15,2013-02-27 13:20:00,
2013-02-27 08:22:00,32.5,31.7,29.57,East,95,0.0,0.0,97,0.00,,,0.00,Wunderground v.1.15,2013-02-27 13:22:00,
2013-02-27 08:23:00,32.5,31.7,29.57,East,95,0.0,0.0,97,0.00,,,0.00,Wunderground v.1.15,2013-02-27 13:23:00,
2013-02-27 08:24:00,32.5,31.7,29.57,East,94,0.0,0.0,97,0.00,,,0.00,Wunderground v.1.15,2013-02-27 13:24:00,
2013-02-27 08:26:00,32.5,31.7,29.57,East,94,0.0,0.0,97,0.00,,,0.00,Wunderground v.1.15,2013-02-27 13:26:00,
2013-02-27 08:27:00,32.5,31.7,29.57,East,90,0.0,1.0,97,0.00,,,0.00,Wunderground v.1.15,2013-02-27 13:27:00,
2013-02-27 08:28:00,32.5,31.7,29.57,East,89,1.0,1.0,97,0.00,,,0.00,Wunderground v.1.15,2013-02-27 13:28:00,
2013-02-27 08:29:00,32.6,31.8,29.57,East,90,1.0,1.0,97,0.00,,,0.00,Wunderground v.1.15,2013-02-27 13:29:00,
2013-02-27 08:31:00,32.5,31.7,29.57,East,90,0.0,2.0,97,0.00,,,0.00,Wunderground v.1.15,2013-02-27 13:31:00,
2013-02-27 08:33:00,32.6,31.8,29.57,East,90,0.0,2.0,97,0.00,,,0.00,Wunderground v.1.15,2013-02-27 13:33:00,
2013-02-27 08:34:00,32.6,31.8,29.57,East,91,1.0,3.0,97,0.00,,,0.00,Wunderground v.1.15,2013-02-27 13:34:00,
2013-02-27 08:36:00,32.6,31.8,29.57,East,91,0.0,3.0,97,0.00,,,0.00,Wunderground v.1.15,2013-02-27 13:36:00,
2013-02-27 08:38:00,32.5,31.7,29.57,East,96,1.0,3.0,97,0.00,,,0.00,Wunderground v.1.15,2013-02-27 13:38:00,
2013-02-27 08:39:00,32.6,31.8,29.57,East,94,2.0,3.0,97,0.00,,,0.00,Wunderground v.1.15,2013-02-27 13:39:00,
2013-02-27 08:42:00,32.6,31.8,29.57,East,98,2.0,3.0,97,0.00,,,0.00,Wunderground v.1.15,2013-02-27 13:42:00,
2013-02-27 08:44:00,32.6,31.8,29.57,East,94,2.0,3.0,97,0.00,,,0.00,Wunderground v.1.15,2013-02-27 13:44:00,
2013-02-27 08:45:00,32.7,31.9,29.57,East,93,0.0,3.0,97,0.00,,,0.00,Wunderground v.1.15,2013-02-27 13:45:00,
2013-02-27 08:47:00,32.7,31.9,29.57,East,93,1.0,3.0,97,0.00,,,0.00,Wunderground v.1.15,2013-02-27 13:47:00,
2013-02-27 08:49:00,32.7,31.9,29.57,East,93,0.0,3.0,97,0.00,,,0.00,Wunderground v.1.15,2013-02-27 13:49:00,
2013-02-27 08:50:00,32.7,31.9,29.57,East,93,0.0,1.0,97,0.00,,,0.00,Wunderground v.1.15,2013-02-27 13:50:00,
2013-02-27 08:52:00,32.7,31.9,29.57,East,97,1.0,1.0,97,0.00,,,0.00,Wunderground v.1.15,2013-02-27 13:52:00,
2013-02-27 08:54:00,32.7,31.9,29.58,East,98,0.0,1.0,97,0.00,,,0.00,Wunderground v.1.15,2013-02-27 13:54:00,
2013-02-27 08:55:00,32.7,31.9,29.57,East,98,0.0,1.0,97,0.00,,,0.00,Wunderground v.1.15,2013-02-27 13:55:00,
2013-02-27 08:58:00,32.8,32.0,29.58,East,99,0.0,1.0,97,0.00,,,0.00,Wunderground v.1.15,2013-02-27 13:58:00,
2013-02-27 08:59:00,32.8,32.0,29.58,East,99,0.0,1.0,97,0.00,,,0.00,Wunderground v.1.15,2013-02-27 13:59:00,
2013-02-27 09:01:00,32.8,32.0,29.58,East,98,0.0,0.0,97,0.00,,,0.00,Wunderground v.1.15,2013-02-27 14:01:00,
2013-02-27 09:03:00,32.9,32.1,29.58,East,98,0.0,0.0,97,0.00,,,0.00,Wunderground v.1.15,2013-02-27 14:03:00,
2013-02-27 09:04:00,32.9,32.1,29.58,East,101,0.0,1.0,97,0.00,,,0.00,Wunderground v.1.15,2013-02-27 14:04:00,
2013-02-27 09:06:00,32.9,32.1,29.58,East,100,0.0,1.0,97,0.00,,,0.00,Wunderground v.1.15,2013-02-27 14:06:00,
2013-02-27 09:08:00,32.9,32.1,29.58,ESE,115,1.0,1.0,97,0.00,,,0.00,Wunderground v.1.15,2013-02-27 14:08:00,
2013-02-27 09:09:00,33.0,32.2,29.58,ESE,116,0.0,1.0,97,0.00,,,0.00,Wunderground v.1.15,2013-02-27 14:09:00,
2013-02-27 09:10:00,33.0,32.2,29.58,ESE,116,0.0,0.0,97,0.00,,,0.00,Wunderground v.1.15,2013-02-27 14:10:00,
2013-02-27 09:11:00,33.0,32.2,29.58,ESE,115,0.0,0.0,97,0.00,,,0.00,Wunderground v.1.15,2013-02-27 14:11:00,
2013-02-27 09:13:00,33.0,32.2,29.58,ESE,115,0.0,0.0,97,0.00,,,0.00,Wunderground v.1.15,2013-02-27 14:13:00,
2013-02-27 09:15:00,33.1,32.3,29.58,SSE,147,0.0,1.0,97,0.00,,,0.00,Wunderground v.1.15,2013-02-27 14:15:00,
2013-02-27 09:16:00,33.1,32.3,29.58,SSE,147,0.0,1.0,97,0.00,,,0.00,Wunderground v.1.15,2013-02-27 14:16:00,
2013-02-27 09:18:00,33.1,32.3,29.58,SSE,147,0.0,1.0,97,0.00,,,0.00,Wunderground v.1.15,2013-02-27 14:18:00,
2013-02-27 09:20:00,33.1,32.3,29.58,SSE,148,0.0,0.0,97,0.00,,,0.00,Wunderground v.1.15,2013-02-27 14:20:00,
2013-02-27 09:21:00,33.2,32.4,29.58,SE,135,1.0,1.0,97,0.00,,,0.00,Wunderground v.1.15,2013-02-27 14:21:00,
2013-02-27 09:23:00,33.2,32.4,29.58,SE,141,0.0,1.0,97,0.00,,,0.01,Wunderground v.1.15,2013-02-27 14:23:00,
2013-02-27 09:25:00,33.2,32.4,29.58,SE,129,0.0,2.0,97,0.00,,,0.01,Wunderground v.1.15,2013-02-27 14:25:00,
2013-02-27 09:26:00,33.2,32.4,29.58,SE,145,1.0,2.0,97,0.00,,,0.01,Wunderground v.1.15,2013-02-27 14:26:00,
2013-02-27 09:29:00,33.3,32.5,29.58,SE,145,0.0,2.0,97,0.00,,,0.01,Wunderground v.1.15,2013-02-27 14:29:00,
2013-02-27 09:30:00,33.3,32.5,29.58,SE,145,0.0,0.0,97,0.00,,,0.01,Wunderground v.1.15,2013-02-27 14:30:00,
2013-02-27 09:31:00,33.3,32.5,29.58,SE,146,1.0,1.0,97,0.00,,,0.01,Wunderground v.1.15,2013-02-27 14:31:00,
2013-02-27 09:34:00,33.3,32.5,29.58,South,190,1.0,4.0,97,0.00,,,0.01,Wunderground v.1.15,2013-02-27 14:34:00,
2013-02-27 09:35:00,33.3,32.5,29.58,South,181,0.0,4.0,97,0.00,,,0.01,Wunderground v.1.15,2013-02-27 14:35:00,
2013-02-27 09:36:00,33.3,32.5,29.58,SE,128,2.0,4.0,97,0.00,,,0.01,Wunderground v.1.15,2013-02-27 14:36:00,
2013-02-27 09:39:00,33.3,32.5,29.57,WSW,246,0.0,1.0,97,0.00,,,0.01,Wunderground v.1.15,2013-02-27 14:39:00,
2013-02-27 09:40:00,33.3,32.5,29.57,SSE,162,0.0,1.0,97,0.00,,,0.01,Wunderground v.1.15,2013-02-27 14:40:00,
2013-02-27 09:41:00,33.4,32.6,29.57,SSE,162,0.0,1.0,97,0.00,,,0.01,Wunderground v.1.15,2013-02-27 14:41:00,
2013-02-27 09:42:00,33.4,32.6,29.58,West,281,1.0,1.0,97,0.00,,,0.01,Wunderground v.1.15,2013-02-27 14:42:00,
2013-02-27 09:44:00,33.5,32.7,29.57,SE,134,1.0,2.0,97,0.00,,,0.01,Wunderground v.1.15,2013-02-27 14:44:00,
2013-02-27 09:45:00,33.5,32.7,29.57,SSE,167,0.0,2.0,97,0.00,,,0.01,Wunderground v.1.15,2013-02-27 14:45:00,
2013-02-27 09:46:00,33.5,32.7,29.57,WSW,249,2.0,3.0,97,0.00,,,0.01,Wunderground v.1.15,2013-02-27 14:46:00,
2013-02-27 09:47:00,33.5,32.7,29.57,SW,219,0.0,3.0,97,0.00,,,0.01,Wunderground v.1.15,2013-02-27 14:47:00,
2013-02-27 09:50:00,33.5,32.7,29.58,SSE,159,0.0,1.0,97,0.00,,,0.01,Wunderground v.1.15,2013-02-27 14:50:00,
2013-02-27 09:51:00,33.6,32.8,29.58,SSW,207,1.0,2.0,97,0.00,,,0.01,Wunderground v.1.15,2013-02-27 14:51:00,
2013-02-27 09:52:00,33.6,32.8,29.58,SW,229,1.0,2.0,97,0.00,,,0.01,Wunderground v.1.15,2013-02-27 14:52:00,
2013-02-27 09:55:00,33.6,32.8,29.58,South,176,0.0,2.0,97,0.00,,,0.01,Wunderground v.1.15,2013-02-27 14:55:00,
2013-02-27 09:57:00,33.7,32.9,29.58,SSW,207,0.0,2.0,97,0.00,,,0.01,Wunderground v.1.15,2013-02-27 14:57:00,
2013-02-27 10:00:00,33.7,32.9,29.58,SSW,204,2.0,2.0,97,0.00,,,0.01,Wunderground v.1.15,2013-02-27 15:00:00,
2013-02-27 10:02:00,33.6,32.8,29.58,West,262,2.0,3.0,97,0.00,,,0.01,Wunderground v.1.15,2013-02-27 15:02:00,
2013-02-27 10:05:00,33.6,32.8,29.57,SW,229,2.0,4.0,97,0.00,,,0.01,Wunderground v.1.15,2013-02-27 15:05:00,
2013-02-27 10:06:00,33.6,32.8,29.57,SW,231,2.0,4.0,97,0.00,,,0.01,Wunderground v.1.15,2013-02-27 15:06:00,
2013-02-27 10:07:00,33.6,32.8,29.57,SW,215,0.0,4.0,97,0.00,,,0.01,Wunderground v.1.15,2013-02-27 15:07:00,
2013-02-27 10:10:00,33.7,32.9,29.57,SE,134,2.0,2.0,97,0.00,,,0.01,Wunderground v.1.15,2013-02-27 15:10:00,
2013-02-27 10:12:00,33.7,32.9,29.57,WSW,243,1.0,3.0,97,0.00,,,0.01,Wunderground v.1.15,2013-02-27 15:12:00,
2013-02-27 10:15:00,33.7,32.9,29.58,WSW,243,1.0,4.0,97,0.00,,,0.01,Wunderground v.1.15,2013-02-27 15:15:00,
2013-02-27 10:17:00,33.8,33.0,29.58,West,270,0.0,4.0,97,0.00,,,0.01,Wunderground v.1.15,2013-02-27 15:17:00,
2013-02-27 10:18:00,33.8,33.0,29.58,SSW,211,0.0,4.0,97,0.00,,,0.01,Wunderground v.1.15,2013-02-27 15:18:00,
2013-02-27 10:20:00,33.8,33.0,29.58,WSW,246,0.0,2.0,97,0.00,,,0.01,Wunderground v.1.15,2013-02-27 15:20:00,
2013-02-27 10:23:00,33.8,33.0,29.58,WSW,239,4.0,4.0,97,0.00,,,0.02,Wunderground v.1.15,2013-02-27 15:23:00,
2013-02-27 10:25:00,33.8,33.0,29.58,WSW,256,1.0,4.0,97,0.00,,,0.02,Wunderground v.1.15,2013-02-27 15:25:00,
2013-02-27 10:28:00,33.7,32.9,29.58,SW,221,2.0,4.0,97,0.00,,,0.02,Wunderground v.1.15,2013-02-27 15:28:00,
2013-02-27 10:30:00,33.7,32.9,29.58,ESE,122,0.0,3.0,97,0.00,,,0.02,Wunderground v.1.15,2013-02-27 15:30:00,
2013-02-27 10:33:00,33.7,32.9,29.58,SSW,196,1.0,3.0,97,0.00,,,0.02,Wunderground v.1.15,2013-02-27 15:33:00,
2013-02-27 10:35:00,33.6,32.8,29.58,WSW,250,1.0,4.0,97,0.00,,,0.02,Wunderground v.1.15,2013-02-27 15:35:00,
2013-02-27 10:38:00,33.6,32.8,29.58,SW,226,2.0,4.0,97,0.00,,,0.02,Wunderground v.1.15,2013-02-27 15:38:00,
2013-02-27 10:40:00,33.6,32.8,29.58,SW,229,2.0,2.0,97,0.00,,,0.03,Wunderground v.1.15,2013-02-27 15:40:00,
2013-02-27 10:43:00,33.6,32.8,29.58,SSE,151,0.0,4.0,97,0.00,,,0.03,Wunderground v.1.15,2013-02-27 15:43:00,
2013-02-27 10:45:00,33.6,32.8,29.58,WNW,287,1.0,4.0,97,0.00,,,0.03,Wunderground v.1.15,2013-02-27 15:45:00,
2013-02-27 10:48:00,33.6,32.8,29.58,West,264,1.0,4.0,97,0.00,,,0.03,Wunderground v.1.15,2013-02-27 15:48:00,
2013-02-27 10:49:00,33.6,32.8,29.58,SW,228,1.0,4.0,97,0.00,,,0.03,Wunderground v.1.15,2013-02-27 15:49:00,
2013-02-27 10:51:00,33.6,32.8,29.58,WSW,244,0.0,2.0,97,0.00,,,0.03,Wunderground v.1.15,2013-02-27 15:51:00,
2013-02-27 10:53:00,33.6,32.8,29.58,WSW,240,2.0,2.0,97,0.00,,,0.03,Wunderground v.1.15,2013-02-27 15:53:00,
2013-02-27 10:54:00,33.6,32.8,29.58,WSW,239,1.0,2.0,97,0.00,,,0.03,Wunderground v.1.15,2013-02-27 15:54:00,
2013-02-27 10:56:00,33.6,32.8,29.58,SE,144,1.0,5.0,97,0.04,,,0.04,Wunderground v.1.15,2013-02-27 15:56:00,
2013-02-27 10:59:00,33.6,32.8,29.58,ESE,121,1.0,5.0,97,0.04,,,0.04,Wunderground v.1.15,2013-02-27 15:59:00,
2013-02-27 11:01:00,33.6,32.8,29.58,WSW,246,1.0,1.0,97,0.04,,,0.04,Wunderground v.1.15,2013-02-27 16:01:00,
2013-02-27 11:04:00,33.5,32.7,29.58,SW,221,2.0,5.0,97,0.04,,,0.04,Wunderground v.1.15,2013-02-27 16:04:00,
2013-02-27 11:06:00,33.5,32.7,29.58,South,174,0.0,5.0,97,0.04,,,0.04,Wunderground v.1.15,2013-02-27 16:06:00,
2013-02-27 11:09:00,33.6,32.8,29.58,SW,221,3.0,5.0,97,0.04,,,0.04,Wunderground v.1.15,2013-02-27 16:09:00,
2013-02-27 11:11:00,33.6,32.8,29.58,WSW,250,1.0,4.0,97,0.04,,,0.05,Wunderground v.1.15,2013-02-27 16:11:00,
2013-02-27 11:14:00,33.6,32.8,29.58,SSW,208,0.0,4.0,97,0.04,,,0.05,Wunderground v.1.15,2013-02-27 16:14:00,
2013-02-27 11:16:00,33.7,32.9,29.58,WSW,250,3.0,4.0,97,0.04,,,0.05,Wunderground v.1.15,2013-02-27 16:16:00,
2013-02-27 11:19:00,33.7,32.9,29.58,WSW,250,1.0,4.0,97,0.04,,,0.05,Wunderground v.1.15,2013-02-27 16:19:00,
2013-02-27 11:20:00,33.8,33.0,29.58,WSW,252,1.0,1.0,97,0.04,,,0.05,Wunderground v.1.15,2013-02-27 16:20:00,
2013-02-27 11:21:00,33.8,33.0,29.58,SW,226,1.0,3.0,97,0.04,,,0.05,Wunderground v.1.15,2013-02-27 16:21:00,
2013-02-27 11:24:00,33.8,33.0,29.58,WSW,246,2.0,5.0,97,0.05,,,0.06,Wunderground v.1.15,2013-02-27 16:24:00,
2013-02-27 11:25:00,33.8,33.0,29.58,WSW,245,0.0,5.0,97,0.05,,,0.06,Wunderground v.1.15,2013-02-27 16:25:00,
2013-02-27 11:27:00,33.8,33.0,29.59,SW,236,3.0,5.0,97,0.05,,,0.06,Wunderground v.1.15,2013-02-27 16:27:00,
2013-02-27 11:29:00,33.8,33.0,29.58,SSW,204,1.0,5.0,97,0.05,,,0.06,Wunderground v.1.15,2013-02-27 16:29:00,
2013-02-27 11:30:00,33.8,33.0,29.58,SW,215,0.0,1.0,97,0.05,,,0.06,Wunderground v.1.15,2013-02-27 16:30:00,
2013-02-27 11:32:00,33.8,33.0,29.59,SSW,198,1.0,3.0,97,0.05,,,0.06,Wunderground v.1.15,2013-02-27 16:32:00,
2013-02-27 11:34:00,33.9,33.1,29.59,West,260,2.0,3.0,97,0.05,,,0.06,Wunderground v.1.15,2013-02-27 16:34:00,
2013-02-27 11:35:00,33.9,33.1,29.59,WSW,243,1.0,3.0,97,0.05,,,0.06,Wunderground v.1.15,2013-02-27 16:35:00,
2013-02-27 11:37:00,33.8,33.0,29.58,West,260,3.0,5.0,97,0.04,,,0.07,Wunderground v.1.15,2013-02-27 16:37:00,
2013-02-27 11:39:00,33.7,32.9,29.58,SSW,192,0.0,5.0,97,0.04,,,0.07,Wunderground v.1.15,2013-02-27 16:39:00,
2013-02-27 11:40:00,33.7,32.9,29.58,SW,229,0.0,1.0,97,0.04,,,0.07,Wunderground v.1.15,2013-02-27 16:40:00,
2013-02-27 11:42:00,33.8,33.0,29.59,SE,146,0.0,2.0,97,0.04,,,0.07,Wunderground v.1.15,2013-02-27 16:42:00,
2013-02-27 11:45:00,33.8,33.0,29.59,WSW,256,0.0,3.0,97,0.04,,,0.07,Wunderground v.1.15,2013-02-27 16:45:00,
2013-02-27 11:47:00,33.9,33.1,29.59,WSW,248,1.0,3.0,97,0.04,,,0.07,Wunderground v.1.15,2013-02-27 16:47:00,
2013-02-27 11:50:00,33.9,33.1,29.59,SSW,212,2.0,4.0,97,0.04,,,0.07,Wunderground v.1.15,2013-02-27 16:50:00,
2013-02-27 11:53:00,33.9,33.1,29.59,SW,235,3.0,4.0,97,0.04,,,0.08,Wunderground v.1.15,2013-02-27 16:53:00,
2013-02-27 11:55:00,33.9,33.1,29.59,SSW,207,1.0,4.0,97,0.04,,,0.08,Wunderground v.1.15,2013-02-27 16:55:00,
2013-02-27 11:56:00,33.9,33.1,29.59,South,177,1.0,4.0,97,0.04,,,0.08,Wunderground v.1.15,2013-02-27 16:56:00,
2013-02-27 11:58:00,33.9,33.1,29.59,SSW,197,1.0,4.0,97,0.04,,,0.08,Wunderground v.1.15,2013-02-27 16:58:00,
2013-02-27 12:01:00,33.9,33.1,29.59,SE,136,0.0,3.0,97,0.04,,,0.08,Wunderground v.1.15,2013-02-27 17:01:00,
2013-02-27 12:03:00,33.9,33.1,29.59,WSW,258,2.0,3.0,97,0.04,,,0.08,Wunderground v.1.15,2013-02-27 17:03:00,
2013-02-27 12:06:00,33.9,33.1,29.59,WSW,246,0.0,3.0,97,0.04,,,0.08,Wunderground v.1.15,2013-02-27 17:06:00,
2013-02-27 12:08:00,33.9,33.1,29.59,WSW,246,0.0,3.0,97,0.04,,,0.09,Wunderground v.1.15,2013-02-27 17:08:00,
2013-02-27 12:11:00,33.9,33.1,29.59,SW,226,2.0,2.0,97,0.04,,,0.09,Wunderground v.1.15,2013-02-27 17:11:00,
2013-02-27 12:14:00,33.8,33.0,29.59,SW,222,1.0,4.0,97,0.04,,,0.09,Wunderground v.1.15,2013-02-27 17:14:00,
2013-02-27 12:16:00,33.8,33.0,29.59,SW,230,0.0,4.0,97,0.04,,,0.09,Wunderground v.1.15,2013-02-27 17:16:00,
2013-02-27 12:17:00,33.8,33.0,29.59,West,266,1.0,4.0,97,0.04,,,0.09,Wunderground v.1.15,2013-02-27 17:17:00,
2013-02-27 12:19:00,33.8,33.0,29.59,South,172,3.0,4.0,97,0.04,,,0.09,Wunderground v.1.15,2013-02-27 17:19:00,
2013-02-27 12:21:00,33.8,33.0,29.59,SW,231,1.0,4.0,97,0.04,,,0.09,Wunderground v.1.15,2013-02-27 17:21:00,
2013-02-27 12:22:00,33.8,33.0,29.59,SW,221,0.0,4.0,97,0.04,,,0.09,Wunderground v.1.15,2013-02-27 17:22:00,
2013-02-27 12:24:00,33.8,33.0,29.59,SW,224,0.0,4.0,97,0.00,,,0.10,Wunderground v.1.15,2013-02-27 17:24:00,
2013-02-27 12:26:00,33.8,33.0,29.59,WSW,243,1.0,5.0,97,0.00,,,0.10,Wunderground v.1.15,2013-02-27 17:26:00,
2013-02-27 12:27:00,33.8,33.0,29.59,WSW,243,0.0,5.0,97,0.00,,,0.10,Wunderground v.1.15,2013-02-27 17:27:00,
2013-02-27 12:29:00,33.8,33.0,29.59,SSE,165,1.0,5.0,97,0.00,,,0.10,Wunderground v.1.15,2013-02-27 17:29:00,
2013-02-27 12:31:00,33.8,33.0,29.59,SW,236,1.0,2.0,97,0.00,,,0.10,Wunderground v.1.15,2013-02-27 17:31:00,
2013-02-27 12:32:00,33.8,33.0,29.59,SW,235,1.0,2.0,97,0.00,,,0.10,Wunderground v.1.15,2013-02-27 17:32:00,
2013-02-27 12:35:00,33.8,33.0,29.59,SW,222,1.0,2.0,97,0.00,,,0.10,Wunderground v.1.15,2013-02-27 17:35:00,
2013-02-27 12:36:00,33.8,33.0,29.59,WSW,245,0.0,2.0,97,0.00,,,0.10,Wunderground v.1.15,2013-02-27 17:36:00,
2013-02-27 12:37:00,33.8,33.0,29.59,WSW,245,0.0,2.0,97,0.00,,,0.10,Wunderground v.1.15,2013-02-27 17:37:00,
2013-02-27 12:40:00,33.9,33.1,29.59,SW,222,3.0,3.0,97,0.00,,,0.10,Wunderground v.1.15,2013-02-27 17:40:00,
2013-02-27 12:42:00,33.8,33.0,29.59,WSW,238,1.0,3.0,97,0.00,,,0.10,Wunderground v.1.15,2013-02-27 17:42:00,
2013-02-27 12:45:00,33.7,32.9,29.59,WSW,238,0.0,3.0,97,0.00,,,0.11,Wunderground v.1.15,2013-02-27 17:45:00,
2013-02-27 12:47:00,33.7,32.9,29.59,SE,127,0.0,3.0,97,0.00,,,0.11,Wunderground v.1.15,2013-02-27 17:47:00,
2013-02-27 12:51:00,33.8,33.0,29.59,WSW,256,1.0,3.0,97,0.00,,,0.11,Wunderground v.1.15,2013-02-27 17:51:00,
2013-02-27 12:52:00,33.7,32.9,29.58,WSW,246,3.0,6.0,97,0.00,,,0.11,Wunderground v.1.15,2013-02-27 17:52:00,
2013-02-27 12:53:00,33.7,32.9,29.58,WSW,246,1.0,6.0,97,0.00,,,0.11,Wunderground v.1.15,2013-02-27 17:53:00,
2013-02-27 12:56:00,33.7,32.9,29.58,WSW,253,3.0,6.0,97,0.00,,,0.11,Wunderground v.1.15,2013-02-27 17:56:00,
2013-02-27 12:57:00,33.7,32.9,29.58,SW,224,2.0,6.0,97,0.00,,,0.11,Wunderground v.1.15,2013-02-27 17:57:00,
2013-02-27 12:58:00,33.7,32.9,29.58,WSW,240,1.0,6.0,97,0.00,,,0.11,Wunderground v.1.15,2013-02-27 17:58:00,
2013-02-27 13:02:00,33.8,33.0,29.58,WSW,239,0.0,1.0,97,0.00,,,0.12,Wunderground v.1.15,2013-02-27 18:02:00,
2013-02-27 13:03:00,33.9,33.1,29.58,South,188,0.0,2.0,97,0.00,,,0.12,Wunderground v.1.15,2013-02-27 18:03:00,
2013-02-27 13:07:00,33.9,33.1,29.58,WSW,239,1.0,6.0,97,0.00,,,0.12,Wunderground v.1.15,2013-02-27 18:07:00,
2013-02-27 13:08:00,33.9,33.1,29.58,WSW,240,3.0,6.0,97,0.00,,,0.12,Wunderground v.1.15,2013-02-27 18:08:00,
2013-02-27 13:12:00,33.8,33.0,29.58,SSE,163,0.0,3.0,97,0.00,,,0.12,Wunderground v.1.15,2013-02-27 18:12:00,
2013-02-27 13:13:00,33.8,33.0,29.58,SW,214,2.0,4.0,97,0.00,,,0.12,Wunderground v.1.15,2013-02-27 18:13:00,
2013-02-27 13:17:00,33.9,33.1,29.58,WSW,250,0.0,5.0,97,0.00,,,0.12,Wunderground v.1.15,2013-02-27 18:17:00,
2013-02-27 13:18:00,33.9,33.1,29.58,SW,236,2.0,5.0,97,0.00,,,0.12,Wunderground v.1.15,2013-02-27 18:18:00,
2013-02-27 13:19:00,33.9,33.1,29.58,SE,124,2.0,5.0,97,0.00,,,0.12,Wunderground v.1.15,2013-02-27 18:19:00,
2013-02-27 13:22:00,33.9,33.1,29.58,WSW,239,1.0,2.0,97,0.00,,,0.13,Wunderground v.1.15,2013-02-27 18:22:00,
2013-02-27 13:23:00,33.9,33.1,29.58,WSW,243,1.0,2.0,97,0.00,,,0.13,Wunderground v.1.15,2013-02-27 18:23:00,
2013-02-27 13:24:00,33.9,33.1,29.58,West,274,2.0,2.0,97,0.00,,,0.13,Wunderground v.1.15,2013-02-27 18:24:00,
2013-02-27 13:27:00,33.9,33.1,29.58,SW,235,0.0,2.0,97,0.00,,,0.13,Wunderground v.1.15,2013-02-27 18:27:00,
2013-02-27 13:28:00,34.0,33.2,29.58,SW,236,1.0,2.0,97,0.00,,,0.13,Wunderground v.1.15,2013-02-27 18:28:00,
2013-02-27 13:29:00,34.0,33.2,29.58,WSW,253,4.0,4.0,97,0.00,,,0.13,Wunderground v.1.15,2013-02-27 18:29:00,
2013-02-27 13:32:00,34.0,33.2,29.58,West,260,2.0,2.0,97,0.00,,,0.13,Wunderground v.1.15,2013-02-27 18:32:00,
2013-02-27 13:34:00,34.0,33.2,29.58,WSW,252,2.0,2.0,97,0.00,,,0.13,Wunderground v.1.15,2013-02-27 18:34:00,
2013-02-27 13:38:00,33.9,33.1,29.58,WSW,246,2.0,5.0,97,0.00,,,0.13,Wunderground v.1.15,2013-02-27 18:38:00,
2013-02-27 13:39:00,33.9,33.1,29.58,SW,218,2.0,5.0,97,0.00,,,0.13,Wunderground v.1.15,2013-02-27 18:39:00,
2013-02-27 13:43:00,33.9,32.9,29.58,West,262,1.0,4.0,96,0.00,,,0.13,Wunderground v.1.15,2013-02-27 18:43:00,
2013-02-27 13:44:00,33.9,32.9,29.58,WSW,246,0.0,4.0,96,0.00,,,0.13,Wunderground v.1.15,2013-02-27 18:44:00,
2013-02-27 13:48:00,33.8,32.8,29.58,WSW,239,2.0,6.0,96,0.00,,,0.14,Wunderground v.1.15,2013-02-27 18:48:00,
2013-02-27 13:49:00,33.9,33.1,29.58,SW,233,0.0,6.0,97,0.00,,,0.14,Wunderground v.1.15,2013-02-27 18:49:00,
2013-02-27 13:53:00,34.0,33.2,29.58,West,264,1.0,2.0,97,0.00,,,0.14,Wunderground v.1.15,2013-02-27 18:53:00,
2013-02-27 13:54:00,34.0,33.2,29.58,WSW,246,0.0,2.0,97,0.00,,,0.14,Wunderground v.1.15,2013-02-27 18:54:00,
2013-02-27 13:58:00,34.0,33.2,29.58,SW,225,1.0,5.0,97,0.00,,,0.14,Wunderground v.1.15,2013-02-27 18:58:00,
2013-02-27 13:59:00,34.0,33.2,29.58,WSW,249,3.0,5.0,97,0.00,,,0.14,Wunderground v.1.15,2013-02-27 18:59:00,
2013-02-27 14:03:00,33.9,32.9,29.58,SSW,201,1.0,5.0,96,0.00,,,0.14,Wunderground v.1.15,2013-02-27 19:03:00,
2013-02-27 14:04:00,33.9,32.9,29.58,SW,229,1.0,5.0,96,0.00,,,0.14,Wunderground v.1.15,2013-02-27 19:04:00,
2013-02-27 14:05:00,33.9,32.9,29.58,WSW,250,2.0,5.0,96,0.00,,,0.14,Wunderground v.1.15,2013-02-27 19:05:00,
2013-02-27 14:09:00,33.9,32.9,29.58,SW,227,0.0,5.0,96,0.00,,,0.15,Wunderground v.1.15,2013-02-27 19:09:00,
2013-02-27 14:10:00,33.9,32.9,29.58,SW,236,0.0,2.0,96,0.00,,,0.15,Wunderground v.1.15,2013-02-27 19:10:00,
2013-02-27 14:14:00,33.9,32.9,29.58,WSW,252,1.0,3.0,96,0.00,,,0.15,Wunderground v.1.15,2013-02-27 19:14:00,
2013-02-27 14:15:00,33.9,32.9,29.58,SW,232,0.0,3.0,96,0.00,,,0.15,Wunderground v.1.15,2013-02-27 19:15:00,
2013-02-27 14:19:00,33.9,32.9,29.58,SSE,148,1.0,5.0,96,0.00,,,0.15,Wunderground v.1.15,2013-02-27 19:19:00,
2013-02-27 14:20:00,33.9,32.9,29.58,SW,223,1.0,3.0,96,0.00,,,0.15,Wunderground v.1.15,2013-02-27 19:20:00,
2013-02-27 14:25:00,33.9,32.9,29.58,SW,233,0.0,5.0,96,0.00,,,0.15,Wunderground v.1.15,2013-02-27 19:25:00,
2013-02-27 14:30:00,33.9,32.9,29.58,WSW,239,0.0,1.0,96,0.00,,,0.15,Wunderground v.1.15,2013-02-27 19:30:00,
2013-02-27 14:35:00,33.9,32.9,29.58,SW,231,1.0,3.0,96,0.00,,,0.16,Wunderground v.1.15,2013-02-27 19:35:00,
2013-02-27 14:40:00,33.9,32.9,29.58,WSW,248,0.0,1.0,96,0.00,,,0.16,Wunderground v.1.15,2013-02-27 19:40:00,
2013-02-27 14:41:00,33.9,32.9,29.58,SW,236,3.0,3.0,96,0.00,,,0.16,Wunderground v.1.15,2013-02-27 19:41:00,
2013-02-27 14:45:00,33.9,32.9,29.58,SW,222,3.0,4.0,96,0.00,,,0.16,Wunderground v.1.15,2013-02-27 19:45:00,
2013-02-27 14:46:00,33.9,32.9,29.58,West,267,2.0,4.0,96,0.00,,,0.16,Wunderground v.1.15,2013-02-27 19:46:00,
2013-02-27 14:50:00,33.9,32.9,29.58,SW,229,0.0,1.0,96,0.00,,,0.16,Wunderground v.1.15,2013-02-27 19:50:00,
2013-02-27 14:51:00,33.9,32.9,29.58,SW,229,0.0,1.0,96,0.00,,,0.16,Wunderground v.1.15,2013-02-27 19:51:00,
2013-02-27 14:56:00,33.9,32.9,29.58,SW,222,1.0,2.0,96,0.00,,,0.16,Wunderground v.1.15,2013-02-27 19:56:00,
2013-02-27 15:01:00,33.8,32.8,29.58,SW,236,3.0,5.0,96,0.00,,,0.16,Wunderground v.1.15,2013-02-27 20:01:00,
2013-02-27 15:06:00,33.8,32.8,29.59,WSW,249,1.0,5.0,96,0.00,,,0.17,Wunderground v.1.15,2013-02-27 20:06:00,
2013-02-27 15:11:00,33.8,32.8,29.59,SW,225,1.0,2.0,96,0.00,,,0.17,Wunderground v.1.15,2013-02-27 20:11:00,
2013-02-27 15:12:00,33.8,32.8,29.59,SW,236,1.0,2.0,96,0.00,,,0.17,Wunderground v.1.15,2013-02-27 20:12:00,
2013-02-27 15:16:00,33.8,32.8,29.59,SSE,158,1.0,3.0,96,0.00,,,0.17,Wunderground v.1.15,2013-02-27 20:16:00,
2013-02-27 15:17:00,33.8,32.8,29.59,SSW,198,1.0,3.0,96,0.00,,,0.17,Wunderground v.1.15,2013-02-27 20:17:00,
2013-02-27 15:21:00,33.8,32.8,29.59,WSW,244,0.0,1.0,96,0.00,,,0.17,Wunderground v.1.15,2013-02-27 20:21:00,
2013-02-27 15:22:00,33.8,32.8,29.59,SW,228,2.0,2.0,96,0.00,,,0.17,Wunderground v.1.15,2013-02-27 20:22:00,
2013-02-27 15:26:00,33.7,32.7,29.59,SW,226,0.0,5.0,96,0.00,,,0.17,Wunderground v.1.15,2013-02-27 20:26:00,
2013-02-27 15:27:00,33.8,32.8,29.59,SW,219,1.0,5.0,96,0.00,,,0.17,Wunderground v.1.15,2013-02-27 20:27:00,
2013-02-27 15:31:00,33.7,32.7,29.59,SW,222,2.0,4.0,96,0.00,,,0.17,Wunderground v.1.15,2013-02-27 20:31:00,
2013-02-27 15:32:00,33.7,32.7,29.59,WSW,246,2.0,4.0,96,0.00,,,0.17,Wunderground v.1.15,2013-02-27 20:32:00,
2013-02-27 15:36:00,33.7,32.7,29.59,WSW,253,3.0,4.0,96,0.00,,,0.17,Wunderground v.1.15,2013-02-27 20:36:00,
2013-02-27 15:37:00,33.7,32.7,29.59,WSW,239,2.0,4.0,96,0.00,,,0.17,Wunderground v.1.15,2013-02-27 20:37:00,
2013-02-27 15:38:00,33.7,32.7,29.59,WSW,246,2.0,4.0,96,0.00,,,0.17,Wunderground v.1.15,2013-02-27 20:38:00,
2013-02-27 15:41:00,33.7,32.7,29.59,SW,233,0.0,3.0,96,0.00,,,0.18,Wunderground v.1.15,2013-02-27 20:41:00,
2013-02-27 15:42:00,33.7,32.7,29.59,WSW,256,2.0,3.0,96,0.00,,,0.18,Wunderground v.1.15,2013-02-27 20:42:00,
2013-02-27 15:43:00,33.7,32.7,29.59,SW,233,2.0,3.0,96,0.00,,,0.18,Wunderground v.1.15,2013-02-27 20:43:00,
2013-02-27 15:46:00,33.7,32.7,29.59,SW,217,1.0,4.0,96,0.00,,,0.18,Wunderground v.1.15,2013-02-27 20:46:00,
2013-02-27 15:47:00,33.7,32.7,29.59,SSW,211,3.0,5.0,96,0.00,,,0.18,Wunderground v.1.15,2013-02-27 20:47:00,
2013-02-27 15:48:00,33.7,32.7,29.59,WSW,243,2.0,5.0,96,0.00,,,0.18,Wunderground v.1.15,2013-02-27 20:48:00,
2013-02-27 15:51:00,33.7,32.7,29.59,SSW,212,2.0,2.0,96,0.00,,,0.18,Wunderground v.1.15,2013-02-27 20:51:00,
2013-02-27 15:53:00,33.7,32.7,29.59,WSW,239,1.0,2.0,96,0.00,,,0.18,Wunderground v.1.15,2013-02-27 20:53:00,
2013-02-27 15:56:00,33.7,32.7,29.60,WSW,240,1.0,3.0,96,0.00,,,0.18,Wunderground v.1.15,2013-02-27 20:56:00,
2013-02-27 15:58:00,33.7,32.7,29.59,WSW,258,0.0,5.0,96,0.00,,,0.18,Wunderground v.1.15,2013-02-27 20:58:00,
2013-02-27 16:01:00,33.7,32.7,29.60,SW,222,2.0,4.0,96,0.00,,,0.18,Wunderground v.1.15,2013-02-27 21:01:00,
2013-02-27 16:03:00,33.7,32.7,29.60,SW,236,0.0,4.0,96,0.00,,,0.18,Wunderground v.1.15,2013-02-27 21:03:00,
2013-02-27 16:07:00,33.7,32.7,29.60,SW,224,0.0,4.0,96,0.00,,,0.18,Wunderground v.1.15,2013-02-27 21:07:00,
2013-02-27 16:08:00,33.7,32.7,29.60,WSW,255,0.0,4.0,96,0.00,,,0.18,Wunderground v.1.15,2013-02-27 21:08:00,
2013-02-27 16:12:00,33.7,32.7,29.60,WSW,248,1.0,2.0,96,0.00,,,0.18,Wunderground v.1.15,2013-02-27 21:12:00,
2013-02-27 16:13:00,33.7,32.7,29.60,WSW,249,1.0,2.0,96,0.00,,,0.18,Wunderground v.1.15,2013-02-27 21:13:00,
2013-02-27 16:14:00,33.7,32.7,29.60,WSW,249,0.0,2.0,96,0.00,,,0.18,Wunderground v.1.15,2013-02-27 21:14:00,
2013-02-27 16:17:00,33.7,32.7,29.60,WSW,248,0.0,2.0,96,0.00,,,0.18,Wunderground v.1.15,2013-02-27 21:17:00,
2013-02-27 16:19:00,33.7,32.7,29.60,WSW,246,0.0,2.0,96,0.00,,,0.18,Wunderground v.1.15,2013-02-27 21:19:00,
2013-02-27 16:22:00,33.7,32.7,29.60,WSW,245,1.0,1.0,96,0.00,,,0.18,Wunderground v.1.15,2013-02-27 21:22:00,
2013-02-27 16:24:00,33.7,32.7,29.60,WSW,243,2.0,2.0,96,0.00,,,0.18,Wunderground v.1.15,2013-02-27 21:24:00,
2013-02-27 16:27:00,33.7,32.4,29.60,SW,224,2.0,5.0,95,0.00,,,0.19,Wunderground v.1.15,2013-02-27 21:27:00,
2013-02-27 16:29:00,33.7,32.4,29.60,WSW,243,1.0,5.0,95,0.00,,,0.19,Wunderground v.1.15,2013-02-27 21:29:00,
2013-02-27 16:33:00,33.6,32.3,29.60,SW,233,1.0,3.0,95,0.00,,,0.19,Wunderground v.1.15,2013-02-27 21:33:00,
2013-02-27 16:34:00,33.7,32.4,29.60,SSE,158,0.0,3.0,95,0.00,,,0.19,Wunderground v.1.15,2013-02-27 21:34:00,
2013-02-27 16:35:00,33.7,32.4,29.60,West,260,1.0,3.0,95,0.00,,,0.19,Wunderground v.1.15,2013-02-27 21:35:00,
2013-02-27 16:38:00,33.7,32.4,29.60,SW,236,2.0,3.0,95,0.00,,,0.19,Wunderground v.1.15,2013-02-27 21:38:00,
2013-02-27 16:39:00,33.6,32.3,29.60,West,276,1.0,3.0,95,0.00,,,0.19,Wunderground v.1.15,2013-02-27 21:39:00,
2013-02-27 16:40:00,33.6,32.3,29.60,West,261,2.0,2.0,95,0.00,,,0.19,Wunderground v.1.15,2013-02-27 21:40:00,
2013-02-27 16:43:00,33.6,32.3,29.60,SW,214,1.0,2.0,95,0.00,,,0.19,Wunderground v.1.15,2013-02-27 21:43:00,
2013-02-27 16:44:00,33.6,32.3,29.60,West,259,1.0,2.0,95,0.00,,,0.19,Wunderground v.1.15,2013-02-27 21:44:00,
2013-02-27 16:45:00,33.6,32.3,29.60,West,259,0.0,2.0,95,0.00,,,0.19,Wunderground v.1.15,2013-02-27 21:45:00,
2013-02-27 16:49:00,33.6,32.3,29.60,WSW,248,1.0,3.0,95,0.00,,,0.19,Wunderground v.1.15,2013-02-27 21:49:00,
2013-02-27 16:50:00,33.6,32.3,29.60,WSW,240,2.0,2.0,95,0.00,,,0.19,Wunderground v.1.15,2013-02-27 21:50:00,
2013-02-27 16:54:00,33.6,32.3,29.60,SW,236,0.0,3.0,95,0.00,,,0.19,Wunderground v.1.15,2013-02-27 21:54:00,
2013-02-27 16:55:00,33.6,32.3,29.60,WSW,249,1.0,3.0,95,0.00,,,0.19,Wunderground v.1.15,2013-02-27 21:55:00,
2013-02-27 16:59:00,33.6,32.3,29.60,SW,236,2.0,3.0,95,0.00,,,0.19,Wunderground v.1.15,2013-02-27 21:59:00,
2013-02-27 17:00:00,33.6,32.3,29.60,SW,219,0.0,1.0,95,0.00,,,0.19,Wunderground v.1.15,2013-02-27 22:00:00,
2013-02-27 17:04:00,33.6,32.3,29.60,West,267,2.0,2.0,95,0.00,,,0.19,Wunderground v.1.15,2013-02-27 22:04:00,
2013-02-27 17:05:00,33.6,32.3,29.60,SW,233,0.0,2.0,95,0.00,,,0.19,Wunderground v.1.15,2013-02-27 22:05:00,
2013-02-27 17:06:00,33.6,32.3,29.60,SW,233,0.0,2.0,95,0.00,,,0.19,Wunderground v.1.15,2013-02-27 22:06:00,
2013-02-27 17:09:00,33.6,32.3,29.60,SW,233,0.0,2.0,95,0.00,,,0.19,Wunderground v.1.15,2013-02-27 22:09:00,
2013-02-27 17:10:00,33.5,32.2,29.60,SW,233,0.0,0.0,95,0.00,,,0.19,Wunderground v.1.15,2013-02-27 22:10:00,
2013-02-27 17:11:00,33.6,32.3,29.60,SW,233,0.0,0.0,95,0.00,,,0.19,Wunderground v.1.15,2013-02-27 22:11:00,
2013-02-27 17:14:00,33.5,32.2,29.60,SW,233,0.0,0.0,95,0.00,,,0.19,Wunderground v.1.15,2013-02-27 22:14:00,
2013-02-27 17:15:00,33.5,32.2,29.60,WSW,250,0.0,0.0,95,0.00,,,0.19,Wunderground v.1.15,2013-02-27 22:15:00,
2013-02-27 17:16:00,33.5,32.2,29.60,WSW,250,0.0,0.0,95,0.00,,,0.19,Wunderground v.1.15,2013-02-27 22:16:00,
2013-02-27 17:19:00,33.5,32.2,29.61,WSW,251,0.0,0.0,95,0.00,,,0.20,Wunderground v.1.15,2013-02-27 22:19:00,
2013-02-27 17:20:00,33.5,32.2,29.61,WSW,250,0.0,0.0,95,0.00,,,0.20,Wunderground v.1.15,2013-02-27 22:20:00,
2013-02-27 17:21:00,33.5,32.2,29.61,WSW,250,0.0,0.0,95,0.00,,,0.20,Wunderground v.1.15,2013-02-27 22:21:00,
2013-02-27 17:25:00,33.5,32.2,29.61,WSW,258,1.0,2.0,95,0.00,,,0.20,Wunderground v.1.15,2013-02-27 22:25:00,
2013-02-27 17:27:00,33.5,32.2,29.61,SW,236,1.0,2.0,95,0.00,,,0.20,Wunderground v.1.15,2013-02-27 22:27:00,
2013-02-27 17:30:00,33.5,32.2,29.61,SW,236,0.0,1.0,95,0.00,,,0.20,Wunderground v.1.15,2013-02-27 22:30:00,
2013-02-27 17:31:00,33.5,32.2,29.61,SW,236,0.0,1.0,95,0.00,,,0.20,Wunderground v.1.15,2013-02-27 22:31:00,
2013-02-27 17:32:00,33.5,32.2,29.61,SW,236,0.0,1.0,95,0.00,,,0.20,Wunderground v.1.15,2013-02-27 22:32:00,
2013-02-27 17:35:00,33.5,32.2,29.61,SW,236,0.0,1.0,95,0.00,,,0.20,Wunderground v.1.15,2013-02-27 22:35:00,
2013-02-27 17:36:00,33.4,32.1,29.61,SW,236,0.0,1.0,95,0.00,,,0.20,Wunderground v.1.15,2013-02-27 22:36:00,
2013-02-27 17:37:00,33.4,32.1,29.61,SW,236,0.0,1.0,95,0.00,,,0.20,Wunderground v.1.15,2013-02-27 22:37:00,
2013-02-27 17:40:00,33.4,32.1,29.61,SW,236,0.0,0.0,95,0.00,,,0.20,Wunderground v.1.15,2013-02-27 22:40:00,
2013-02-27 17:41:00,33.4,32.1,29.61,SW,236,0.0,0.0,95,0.00,,,0.20,Wunderground v.1.15,2013-02-27 22:41:00,
2013-02-27 17:42:00,33.4,32.1,29.61,SW,236,0.0,0.0,95,0.00,,,0.20,Wunderground v.1.15,2013-02-27 22:42:00,
2013-02-27 17:45:00,33.4,32.1,29.61,SW,236,0.0,0.0,95,0.00,,,0.20,Wunderground v.1.15,2013-02-27 22:45:00,
2013-02-27 17:46:00,33.4,32.1,29.61,SW,236,0.0,0.0,95,0.00,,,0.20,Wunderground v.1.15,2013-02-27 22:46:00,
2013-02-27 17:47:00,33.3,32.0,29.61,SW,225,0.0,1.0,95,0.00,,,0.20,Wunderground v.1.15,2013-02-27 22:47:00,
2013-02-27 17:51:00,33.3,32.0,29.61,SW,225,0.0,0.0,95,0.00,,,0.20,Wunderground v.1.15,2013-02-27 22:51:00,
2013-02-27 17:52:00,33.3,32.0,29.61,SW,225,0.0,0.0,95,0.00,,,0.20,Wunderground v.1.15,2013-02-27 22:52:00,
2013-02-27 17:56:00,33.2,31.9,29.61,SW,225,1.0,1.0,95,0.00,,,0.20,Wunderground v.1.15,2013-02-27 22:56:00,
2013-02-27 17:57:00,33.2,31.9,29.62,SW,222,0.0,1.0,95,0.00,,,0.20,Wunderground v.1.15,2013-02-27 22:57:00,
2013-02-27 18:01:00,33.2,31.9,29.62,SW,222,0.0,0.0,95,0.00,,,0.20,Wunderground v.1.15,2013-02-27 23:01:00,
2013-02-27 18:02:00,33.2,31.9,29.62,SW,225,0.0,1.0,95,0.00,,,0.20,Wunderground v.1.15,2013-02-27 23:02:00,
2013-02-27 18:06:00,33.1,31.8,29.62,SW,224,0.0,1.0,95,0.00,,,0.20,Wunderground v.1.15,2013-02-27 23:06:00,
2013-02-27 18:07:00,33.1,31.8,29.62,SW,224,0.0,1.0,95,0.00,,,0.20,Wunderground v.1.15,2013-02-27 23:07:00,
2013-02-27 18:11:00,33.0,31.7,29.62,WSW,239,0.0,1.0,95,0.00,,,0.20,Wunderground v.1.15,2013-02-27 23:11:00,
2013-02-27 18:12:00,33.0,31.7,29.62,SSW,192,0.0,1.0,95,0.00,,,0.20,Wunderground v.1.15,2013-02-27 23:12:00,
2013-02-27 18:16:00,32.9,31.6,29.62,SSW,194,0.0,1.0,95,0.00,,,0.20,Wunderground v.1.15,2013-02-27 23:16:00,
2013-02-27 18:17:00,32.9,31.6,29.62,SSW,193,0.0,1.0,95,0.00,,,0.20,Wunderground v.1.15,2013-02-27 23:17:00,
2013-02-27 18:21:00,32.9,31.6,29.62,SSW,194,0.0,2.0,95,0.00,,,0.20,Wunderground v.1.15,2013-02-27 23:21:00,
2013-02-27 18:22:00,32.9,31.6,29.62,SSW,194,0.0,2.0,95,0.00,,,0.20,Wunderground v.1.15,2013-02-27 23:22:00,
2013-02-27 18:23:00,32.8,31.5,29.62,SW,218,0.0,2.0,95,0.00,,,0.20,Wunderground v.1.15,2013-02-27 23:23:00,
2013-02-27 18:26:00,32.8,31.5,29.62,SSE,160,0.0,2.0,95,0.00,,,0.20,Wunderground v.1.15,2013-02-27 23:26:00,
2013-02-27 18:27:00,32.8,31.5,29.62,West,264,1.0,2.0,95,0.00,,,0.20,Wunderground v.1.15,2013-02-27 23:27:00,
2013-02-27 18:28:00,32.8,31.5,29.62,West,264,0.0,2.0,95,0.00,,,0.20,Wunderground v.1.15,2013-02-27 23:28:00,
2013-02-27 18:31:00,32.8,31.8,29.62,South,186,0.0,3.0,96,0.00,,,0.20,Wunderground v.1.15,2013-02-27 23:31:00,
2013-02-27 18:32:00,32.8,31.8,29.62,SW,236,0.0,3.0,96,0.00,,,0.20,Wunderground v.1.15,2013-02-27 23:32:00,
2013-02-27 18:33:00,32.8,31.8,29.62,WSW,249,0.0,3.0,96,0.00,,,0.20,Wunderground v.1.15,2013-02-27 23:33:00,
2013-02-27 18:36:00,32.8,31.8,29.62,WSW,249,0.0,3.0,96,0.00,,,0.20,Wunderground v.1.15,2013-02-27 23:36:00,
2013-02-27 18:37:00,32.8,31.8,29.62,SSW,193,0.0,3.0,96,0.00,,,0.20,Wunderground v.1.15,2013-02-27 23:37:00,
2013-02-27 18:38:00,32.8,31.8,29.63,SSW,193,0.0,3.0,96,0.00,,,0.20,Wunderground v.1.15,2013-02-27 23:38:00,
2013-02-27 18:41:00,32.7,31.7,29.62,SSW,193,0.0,0.0,96,0.00,,,0.20,Wunderground v.1.15,2013-02-27 23:41:00,
2013-02-27 18:42:00,32.7,31.7,29.62,WSW,239,1.0,1.0,96,0.00,,,0.20,Wunderground v.1.15,2013-02-27 23:42:00,
2013-02-27 18:43:00,32.7,31.7,29.63,SW,222,1.0,2.0,96,0.00,,,0.20,Wunderground v.1.15,2013-02-27 23:43:00,
2013-02-27 18:47:00,32.7,31.7,29.63,WSW,238,0.0,2.0,96,0.00,,,0.21,Wunderground v.1.15,2013-02-27 23:47:00,
2013-02-27 18:48:00,32.7,31.7,29.63,WSW,239,1.0,2.0,96,0.00,,,0.21,Wunderground v.1.15,2013-02-27 23:48:00,
2013-02-27 18:52:00,32.7,31.7,29.63,SW,235,0.0,2.0,96,0.00,,,0.21,Wunderground v.1.15,2013-02-27 23:52:00,
2013-02-27 18:53:00,32.7,31.7,29.63,SW,229,0.0,2.0,96,0.00,,,0.21,Wunderground v.1.15,2013-02-27 23:53:00,
2013-02-27 18:54:00,32.7,31.7,29.63,WSW,243,2.0,2.0,96,0.00,,,0.21,Wunderground v.1.15,2013-02-27 23:54:00,
2013-02-27 18:57:00,32.6,31.6,29.63,SW,224,0.0,3.0,96,0.00,,,0.21,Wunderground v.1.15,2013-02-27 23:57:00,
2013-02-27 18:58:00,32.6,31.6,29.63,SW,224,0.0,3.0,96,0.00,,,0.21,Wunderground v.1.15,2013-02-27 23:58:00,
2013-02-27 18:59:00,32.6,31.6,29.63,SW,228,2.0,3.0,96,0.00,,,0.21,Wunderground v.1.15,2013-02-27 23:59:00,
2013-02-27 19:02:00,32.6,31.6,29.63,SW,219,1.0,4.0,96,0.00,,,0.21,Wunderground v.1.15,2013-02-28 00:02:00,
2013-02-27 19:03:00,32.6,31.6,29.63,WSW,242,1.0,4.0,96,0.00,,,0.21,Wunderground v.1.15,2013-02-28 00:03:00,
2013-02-27 19:04:00,32.6,31.6,29.63,WSW,242,0.0,4.0,96,0.00,,,0.21,Wunderground v.1.15,2013-02-28 00:04:00,
2013-02-27 19:07:00,32.6,31.6,29.63,WSW,242,0.0,4.0,96,0.00,,,0.21,Wunderground v.1.15,2013-02-28 00:07:00,
2013-02-27 19:08:00,32.6,31.6,29.63,WSW,243,0.0,4.0,96,0.00,,,0.21,Wunderground v.1.15,2013-02-28 00:08:00,
2013-02-27 19:09:00,32.6,31.6,29.63,WSW,243,0.0,4.0,96,0.00,,,0.21,Wunderground v.1.15,2013-02-28 00:09:00,
2013-02-27 19:12:00,32.5,31.5,29.63,WSW,242,0.0,0.0,96,0.00,,,0.21,Wunderground v.1.15,2013-02-28 00:12:00,
2013-02-27 19:13:00,32.5,31.5,29.63,WSW,241,0.0,1.0,96,0.00,,,0.21,Wunderground v.1.15,2013-02-28 00:13:00,
2013-02-27 19:14:00,32.5,31.5,29.63,SW,219,0.0,2.0,96,0.00,,,0.21,Wunderground v.1.15,2013-02-28 00:14:00,
2013-02-27 19:17:00,32.5,31.5,29.63,SW,236,1.0,2.0,96,0.00,,,0.21,Wunderground v.1.15,2013-02-28 00:17:00,
2013-02-27 19:18:00,32.5,31.5,29.63,SW,233,1.0,2.0,96,0.00,,,0.21,Wunderground v.1.15,2013-02-28 00:18:00,
2013-02-27 19:19:00,32.5,31.5,29.63,SW,235,0.0,2.0,96,0.00,,,0.21,Wunderground v.1.15,2013-02-28 00:19:00,
2013-02-27 19:22:00,32.5,31.5,29.63,SW,224,2.0,5.0,96,0.00,,,0.21,Wunderground v.1.15,2013-02-28 00:22:00,
2013-02-27 19:23:00,32.5,31.5,29.63,SW,231,2.0,5.0,96,0.00,,,0.21,Wunderground v.1.15,2013-02-28 00:23:00,
2013-02-27 19:24:00,32.5,31.5,29.63,SSW,204,0.0,5.0,96,0.00,,,0.21,Wunderground v.1.15,2013-02-28 00:24:00,
2013-02-27 19:28:00,32.5,31.5,29.63,SW,221,0.0,5.0,96,0.00,,,0.21,Wunderground v.1.15,2013-02-28 00:28:00,
2013-02-27 19:29:00,32.5,31.5,29.63,SW,226,0.0,5.0,96,0.00,,,0.21,Wunderground v.1.15,2013-02-28 00:29:00,
2013-02-27 19:30:00,32.5,31.5,29.63,SW,226,0.0,1.0,96,0.00,,,0.21,Wunderground v.1.15,2013-02-28 00:30:00,
2013-02-27 19:33:00,32.5,31.5,29.63,SW,229,0.0,1.0,96,0.00,,,0.21,Wunderground v.1.15,2013-02-28 00:33:00,
2013-02-27 19:35:00,32.5,31.5,29.63,SW,228,0.0,1.0,96,0.00,,,0.21,Wunderground v.1.15,2013-02-28 00:35:00,
2013-02-27 19:38:00,32.5,31.5,29.63,SE,143,0.0,1.0,96,0.00,,,0.21,Wunderground v.1.15,2013-02-28 00:38:00,
2013-02-27 19:40:00,32.5,31.5,29.63,SE,143,0.0,0.0,96,0.00,,,0.21,Wunderground v.1.15,2013-02-28 00:40:00,
2013-02-27 19:43:00,32.5,31.5,29.63,SW,229,0.0,2.0,96,0.00,,,0.21,Wunderground v.1.15,2013-02-28 00:43:00,
2013-02-27 19:45:00,32.5,31.5,29.63,South,185,0.0,2.0,96,0.00,,,0.21,Wunderground v.1.15,2013-02-28 00:45:00,
2013-02-27 19:48:00,32.4,31.4,29.62,WSW,240,1.0,2.0,96,0.00,,,0.21,Wunderground v.1.15,2013-02-28 00:48:00,
2013-02-27 19:50:00,32.4,31.4,29.62,WSW,240,1.0,1.0,96,0.00,,,0.21,Wunderground v.1.15,2013-02-28 00:50:00,
2013-02-27 19:53:00,32.4,31.4,29.62,SW,215,0.0,1.0,96,0.00,,,0.21,Wunderground v.1.15,2013-02-28 00:53:00,
2013-02-27 19:55:00,32.4,31.4,29.62,SW,214,0.0,1.0,96,0.00,,,0.21,Wunderground v.1.15,2013-02-28 00:55:00,
2013-02-27 19:58:00,32.4,31.4,29.62,SW,224,0.0,1.0,96,0.00,,,0.21,Wunderground v.1.15,2013-02-28 00:58:00,
2013-02-27 20:01:00,32.4,31.4,29.62,SW,224,0.0,0.0,96,0.00,,,0.21,Wunderground v.1.15,2013-02-28 01:01:00,
2013-02-27 20:03:00,32.4,31.4,29.62,SW,233,3.0,3.0,96,0.00,,,0.21,Wunderground v.1.15,2013-02-28 01:03:00,
2013-02-27 20:06:00,32.4,31.4,29.62,SW,229,0.0,3.0,96,0.00,,,0.21,Wunderground v.1.15,2013-02-28 01:06:00,
2013-02-27 20:08:00,32.4,31.4,29.62,SW,229,0.0,3.0,96,0.00,,,0.21,Wunderground v.1.15,2013-02-28 01:08:00,
2013-02-27 20:11:00,32.4,31.4,29.62,SW,224,0.0,1.0,96,0.00,,,0.21,Wunderground v.1.15,2013-02-28 01:11:00,
2013-02-27 20:13:00,32.4,31.4,29.62,WSW,245,2.0,2.0,96,0.00,,,0.21,Wunderground v.1.15,2013-02-28 01:13:00,
2013-02-27 20:14:00,32.4,31.4,29.62,SW,228,1.0,2.0,96,0.00,,,0.21,Wunderground v.1.15,2013-02-28 01:14:00,
2013-02-27 20:16:00,32.4,31.4,29.62,SW,228,0.0,2.0,96,0.00,,,0.21,Wunderground v.1.15,2013-02-28 01:16:00,
2013-02-27 20:17:00,32.4,31.4,29.62,SW,228,0.0,2.0,96,0.00,,,0.21,Wunderground v.1.15,2013-02-28 01:17:00,
2013-02-27 20:19:00,32.4,31.4,29.62,SW,228,0.0,2.0,96,0.00,,,0.21,Wunderground v.1.15,2013-02-28 01:19:00,
2013-02-27 20:21:00,32.3,31.3,29.62,WSW,243,0.0,2.0,96,0.00,,,0.21,Wunderground v.1.15,2013-02-28 01:21:00,
2013-02-27 20:22:00,32.4,31.4,29.62,SW,225,3.0,3.0,96,0.00,,,0.21,Wunderground v.1.15,2013-02-28 01:22:00,
2013-02-27 20:24:00,32.3,31.3,29.62,WSW,243,0.0,3.0,96,0.00,,,0.21,Wunderground v.1.15,2013-02-28 01:24:00,
2013-02-27 20:26:00,32.4,31.4,29.62,SW,233,0.0,3.0,96,0.00,,,0.21,Wunderground v.1.15,2013-02-28 01:26:00,
2013-02-27 20:27:00,32.3,31.3,29.62,SW,233,1.0,3.0,96,0.00,,,0.21,Wunderground v.1.15,2013-02-28 01:27:00,
2013-02-27 20:29:00,32.3,31.3,29.62,South,185,0.0,3.0,96,0.00,,,0.21,Wunderground v.1.15,2013-02-28 01:29:00,
2013-02-27 20:31:00,32.3,31.3,29.62,South,186,0.0,1.0,96,0.00,,,0.21,Wunderground v.1.15,2013-02-28 01:31:00,
2013-02-27 20:32:00,32.3,31.3,29.62,South,186,0.0,1.0,96,0.00,,,0.21,Wunderground v.1.15,2013-02-28 01:32:00,
2013-02-27 20:34:00,32.3,31.3,29.62,South,186,0.0,1.0,96,0.00,,,0.21,Wunderground v.1.15,2013-02-28 01:34:00,
2013-02-27 20:36:00,32.3,31.3,29.62,SW,230,0.0,1.0,96,0.00,,,0.21,Wunderground v.1.15,2013-02-28 01:36:00,
2013-02-27 20:37:00,32.3,31.3,29.62,SW,231,0.0,1.0,96,0.00,,,0.21,Wunderground v.1.15,2013-02-28 01:37:00,
2013-02-27 20:39:00,32.3,31.3,29.62,SW,231,0.0,1.0,96,0.00,,,0.21,Wunderground v.1.15,2013-02-28 01:39:00,
2013-02-27 20:41:00,32.3,31.3,29.62,WSW,256,0.0,0.0,96,0.00,,,0.21,Wunderground v.1.15,2013-02-28 01:41:00,
2013-02-27 20:42:00,32.3,31.3,29.62,WSW,255,0.0,0.0,96,0.00,,,0.21,Wunderground v.1.15,2013-02-28 01:42:00,
2013-02-27 20:44:00,32.3,31.3,29.62,WSW,256,0.0,0.0,96,0.00,,,0.21,Wunderground v.1.15,2013-02-28 01:44:00,
2013-02-27 20:46:00,32.3,31.3,29.62,SW,233,0.0,1.0,96,0.00,,,0.21,Wunderground v.1.15,2013-02-28 01:46:00,
2013-02-27 20:47:00,32.3,31.3,29.62,SW,233,0.0,1.0,96,0.00,,,0.21,Wunderground v.1.15,2013-02-28 01:47:00,
2013-02-27 20:49:00,32.3,31.3,29.62,SW,232,0.0,1.0,96,0.00,,,0.21,Wunderground v.1.15,2013-02-28 01:49:00,
2013-02-27 20:50:00,32.3,31.3,29.62,SW,232,0.0,0.0,96,0.00,,,0.21,Wunderground v.1.15,2013-02-28 01:50:00,
2013-02-27 20:52:00,32.3,31.3,29.62,SW,235,1.0,2.0,96,0.00,,,0.21,Wunderground v.1.15,2013-02-28 01:52:00,
2013-02-27 20:55:00,32.3,31.3,29.62,SSW,208,1.0,2.0,96,0.00,,,0.21,Wunderground v.1.15,2013-02-28 01:55:00,
2013-02-27 20:57:00,32.3,31.3,29.62,SW,225,0.0,2.0,96,0.00,,,0.21,Wunderground v.1.15,2013-02-28 01:57:00,
2013-02-27 21:00:00,32.3,31.3,29.62,SW,221,0.0,0.0,96,0.00,,,0.21,Wunderground v.1.15,2013-02-28 02:00:00,
2013-02-27 21:02:00,32.3,31.3,29.62,SW,231,0.0,1.0,96,0.00,,,0.22,Wunderground v.1.15,2013-02-28 02:02:00,
2013-02-27 21:05:00,32.3,31.3,29.62,WSW,243,1.0,1.0,96,0.00,,,0.22,Wunderground v.1.15,2013-02-28 02:05:00,
2013-02-27 21:07:00,32.3,31.3,29.62,WSW,251,1.0,2.0,96,0.00,,,0.22,Wunderground v.1.15,2013-02-28 02:07:00,
2013-02-27 21:08:00,32.2,31.2,29.62,WSW,249,1.0,2.0,96,0.00,,,0.22,Wunderground v.1.15,2013-02-28 02:08:00,
2013-02-27 21:10:00,32.3,31.3,29.62,South,169,0.0,1.0,96,0.00,,,0.22,Wunderground v.1.15,2013-02-28 02:10:00,
2013-02-27 21:13:00,32.2,31.2,29.62,WSW,253,0.0,2.0,96,0.00,,,0.22,Wunderground v.1.15,2013-02-28 02:13:00,
2013-02-27 21:15:00,32.3,31.3,29.62,SW,229,0.0,2.0,96,0.00,,,0.22,Wunderground v.1.15,2013-02-28 02:15:00,
2013-02-27 21:18:00,32.3,31.3,29.62,West,269,0.0,2.0,96,0.00,,,0.22,Wunderground v.1.15,2013-02-28 02:18:00,
2013-02-27 21:20:00,32.2,31.2,29.62,West,269,0.0,0.0,96,0.00,,,0.22,Wunderground v.1.15,2013-02-28 02:20:00,
2013-02-27 21:21:00,32.3,31.3,29.62,West,269,0.0,0.0,96,0.00,,,0.22,Wunderground v.1.15,2013-02-28 02:21:00,
2013-02-27 21:23:00,32.2,31.2,29.62,West,269,0.0,0.0,96,0.00,,,0.22,Wunderground v.1.15,2013-02-28 02:23:00,
2013-02-27 21:25:00,32.2,31.2,29.62,West,269,0.0,0.0,96,0.00,,,0.22,Wunderground v.1.15,2013-02-28 02:25:00,
2013-02-27 21:26:00,32.2,31.2,29.62,West,268,0.0,0.0,96,0.00,,,0.22,Wunderground v.1.15,2013-02-28 02:26:00,
2013-02-27 21:28:00,32.2,31.2,29.62,WSW,258,0.0,1.0,96,0.00,,,0.22,Wunderground v.1.15,2013-02-28 02:28:00,
2013-02-27 21:29:00,32.2,31.2,29.62,WSW,258,0.0,1.0,96,0.00,,,0.22,Wunderground v.1.15,2013-02-28 02:29:00,
2013-02-27 21:30:00,32.2,31.2,29.61,SW,224,0.0,1.0,96,0.00,,,0.22,Wunderground v.1.15,2013-02-28 02:30:00,
2013-02-27 21:32:00,32.2,31.2,29.61,SW,224,0.0,1.0,96,0.00,,,0.22,Wunderground v.1.15,2013-02-28 02:32:00,
2013-02-27 21:33:00,32.2,31.2,29.62,SW,228,0.0,1.0,96,0.00,,,0.22,Wunderground v.1.15,2013-02-28 02:33:00,
2013-02-27 21:34:00,32.2,31.2,29.62,SW,229,1.0,1.0,96,0.00,,,0.22,Wunderground v.1.15,2013-02-28 02:34:00,
2013-02-27 21:35:00,32.2,31.2,29.62,SW,226,0.0,1.0,96,0.00,,,0.22,Wunderground v.1.15,2013-02-28 02:35:00,
2013-02-27 21:37:00,32.2,31.2,29.62,SW,226,0.0,1.0,96,0.00,,,0.22,Wunderground v.1.15,2013-02-28 02:37:00,
2013-02-27 21:38:00,32.2,31.2,29.62,SW,233,1.0,1.0,96,0.00,,,0.22,Wunderground v.1.15,2013-02-28 02:38:00,
2013-02-27 21:39:00,32.2,31.2,29.62,SW,233,0.0,1.0,96,0.00,,,0.22,Wunderground v.1.15,2013-02-28 02:39:00,
2013-02-27 21:41:00,32.2,31.2,29.62,WSW,253,1.0,2.0,96,0.00,,,0.22,Wunderground v.1.15,2013-02-28 02:41:00,
2013-02-27 21:42:00,32.2,31.2,29.62,WSW,251,1.0,2.0,96,0.00,,,0.22,Wunderground v.1.15,2013-02-28 02:42:00,
2013-02-27 21:44:00,32.2,31.2,29.62,WSW,251,1.0,2.0,96,0.00,,,0.22,Wunderground v.1.15,2013-02-28 02:44:00,
2013-02-27 21:46:00,32.2,31.2,29.62,WSW,252,0.0,2.0,96,0.00,,,0.22,Wunderground v.1.15,2013-02-28 02:46:00,
2013-02-27 21:47:00,32.2,31.2,29.62,WSW,251,1.0,2.0,96,0.00,,,0.22,Wunderground v.1.15,2013-02-28 02:47:00,
2013-02-27 21:49:00,32.2,31.2,29.62,SSW,207,1.0,2.0,96,0.00,,,0.22,Wunderground v.1.15,2013-02-28 02:49:00,
2013-02-27 21:51:00,32.3,31.3,29.62,WSW,246,0.0,1.0,96,0.00,,,0.22,Wunderground v.1.15,2013-02-28 02:51:00,
2013-02-27 21:52:00,32.2,31.2,29.62,WSW,246,0.0,1.0,96,0.00,,,0.22,Wunderground v.1.15,2013-02-28 02:52:00,
2013-02-27 21:54:00,32.2,31.2,29.62,SW,228,1.0,1.0,96,0.00,,,0.22,Wunderground v.1.15,2013-02-28 02:54:00,
2013-02-27 21:56:00,32.2,31.2,29.62,SW,226,0.0,1.0,96,0.00,,,0.22,Wunderground v.1.15,2013-02-28 02:56:00,
2013-02-27 21:57:00,32.2,31.2,29.62,WSW,256,1.0,1.0,96,0.00,,,0.22,Wunderground v.1.15,2013-02-28 02:57:00,
2013-02-27 21:59:00,32.2,31.2,29.62,WSW,256,0.0,1.0,96,0.00,,,0.22,Wunderground v.1.15,2013-02-28 02:59:00,
2013-02-27 22:01:00,32.2,31.2,29.62,WSW,252,0.0,1.0,96,0.00,,,0.22,Wunderground v.1.15,2013-02-28 03:01:00,
2013-02-27 22:02:00,32.2,31.2,29.62,WSW,243,0.0,2.0,96,0.00,,,0.22,Wunderground v.1.15,2013-02-28 03:02:00,
2013-02-27 22:04:00,32.2,31.2,29.62,SW,236,1.0,2.0,96,0.00,,,0.22,Wunderground v.1.15,2013-02-28 03:04:00,
2013-02-27 22:06:00,32.2,31.2,29.62,WSW,246,2.0,2.0,96,0.00,,,0.22,Wunderground v.1.15,2013-02-28 03:06:00,
2013-02-27 22:07:00,32.3,31.3,29.62,WSW,243,2.0,2.0,96,0.00,,,0.22,Wunderground v.1.15,2013-02-28 03:07:00,
2013-02-27 22:09:00,32.3,31.3,29.62,WSW,243,1.0,2.0,96,0.00,,,0.22,Wunderground v.1.15,2013-02-28 03:09:00,
2013-02-27 22:11:00,32.3,31.3,29.62,WSW,246,0.0,1.0,96,0.00,,,0.22,Wunderground v.1.15,2013-02-28 03:11:00,
2013-02-27 22:12:00,32.2,31.2,29.62,WSW,244,0.0,1.0,96,0.00,,,0.22,Wunderground v.1.15,2013-02-28 03:12:00,
2013-02-27 22:15:00,32.3,31.3,29.62,WSW,245,0.0,1.0,96,0.00,,,0.22,Wunderground v.1.15,2013-02-28 03:15:00,
2013-02-27 22:16:00,32.2,31.2,29.62,WSW,245,1.0,1.0,96,0.00,,,0.22,Wunderground v.1.15,2013-02-28 03:16:00,
2013-02-27 22:18:00,32.2,31.2,29.62,SW,224,1.0,2.0,96,0.00,,,0.22,Wunderground v.1.15,2013-02-28 03:18:00,
2013-02-27 22:20:00,32.2,31.2,29.61,WSW,241,0.0,1.0,96,0.00,,,0.22,Wunderground v.1.15,2013-02-28 03:20:00,
2013-02-27 22:21:00,32.2,31.2,29.61,WSW,241,0.0,1.0,96,0.00,,,0.22,Wunderground v.1.15,2013-02-28 03:21:00,
2013-02-27 22:23:00,32.2,31.2,29.61,WSW,240,0.0,1.0,96,0.00,,,0.22,Wunderground v.1.15,2013-02-28 03:23:00,
2013-02-27 22:25:00,32.2,31.2,29.61,WSW,240,0.0,1.0,96,0.00,,,0.22,Wunderground v.1.15,2013-02-28 03:25:00,
2013-02-27 22:27:00,32.2,31.2,29.61,WSW,240,0.0,1.0,96,0.00,,,0.22,Wunderground v.1.15,2013-02-28 03:27:00,
2013-02-27 22:28:00,32.2,31.2,29.61,WSW,240,0.0,1.0,96,0.00,,,0.22,Wunderground v.1.15,2013-02-28 03:28:00,
2013-02-27 22:30:00,32.2,31.2,29.61,WSW,240,1.0,1.0,96,0.00,,,0.22,Wunderground v.1.15,2013-02-28 03:30:00,
2013-02-27 22:32:00,32.2,31.2,29.61,WSW,240,0.0,1.0,96,0.00,,,0.22,Wunderground v.1.15,2013-02-28 03:32:00,
2013-02-27 22:33:00,32.2,31.2,29.61,WSW,241,0.0,1.0,96,0.00,,,0.22,Wunderground v.1.15,2013-02-28 03:33:00,
2013-02-27 22:35:00,32.2,31.2,29.61,WSW,240,1.0,1.0,96,0.00,,,0.22,Wunderground v.1.15,2013-02-28 03:35:00,
2013-02-27 22:36:00,32.2,31.2,29.61,WSW,241,1.0,1.0,96,0.00,,,0.22,Wunderground v.1.15,2013-02-28 03:36:00,
2013-02-27 22:37:00,32.2,31.2,29.61,WSW,240,1.0,1.0,96,0.00,,,0.22,Wunderground v.1.15,2013-02-28 03:37:00,
2013-02-27 22:38:00,32.2,31.2,29.61,WSW,241,0.0,1.0,96,0.00,,,0.22,Wunderground v.1.15,2013-02-28 03:38:00,
2013-02-27 22:40:00,32.2,31.2,29.61,SW,219,1.0,1.0,96,0.00,,,0.22,Wunderground v.1.15,2013-02-28 03:40:00,
2013-02-27 22:41:00,32.2,31.2,29.61,SW,219,0.0,1.0,96,0.00,,,0.22,Wunderground v.1.15,2013-02-28 03:41:00,
2013-02-27 22:42:00,32.2,31.2,29.61,SW,220,0.0,1.0,96,0.00,,,0.22,Wunderground v.1.15,2013-02-28 03:42:00,
2013-02-27 22:43:00,32.2,31.2,29.61,SW,219,0.0,1.0,96,0.00,,,0.22,Wunderground v.1.15,2013-02-28 03:43:00,
2013-02-27 22:45:00,32.2,31.2,29.61,SW,219,1.0,1.0,96,0.00,,,0.22,Wunderground v.1.15,2013-02-28 03:45:00,
2013-02-27 22:46:00,32.2,31.2,29.61,SW,221,0.0,1.0,96,0.00,,,0.22,Wunderground v.1.15,2013-02-28 03:46:00,
2013-02-27 22:47:00,32.2,31.2,29.61,SW,219,0.0,1.0,96,0.00,,,0.22,Wunderground v.1.15,2013-02-28 03:47:00,
2013-02-27 22:49:00,32.2,31.2,29.61,SW,219,0.0,1.0,96,0.00,,,0.22,Wunderground v.1.15,2013-02-28 03:49:00,
2013-02-27 22:50:00,32.2,31.2,29.61,SW,219,0.0,0.0,96,0.00,,,0.22,Wunderground v.1.15,2013-02-28 03:50:00,
2013-02-27 22:52:00,32.2,31.2,29.61,SW,219,0.0,0.0,96,0.00,,,0.22,Wunderground v.1.15,2013-02-28 03:52:00,
2013-02-27 22:54:00,32.2,31.2,29.61,SW,224,0.0,0.0,96,0.00,,,0.22,Wunderground v.1.15,2013-02-28 03:54:00,
2013-02-27 22:56:00,32.2,31.2,29.61,SW,224,0.0,0.0,96,0.00,,,0.22,Wunderground v.1.15,2013-02-28 03:56:00,
2013-02-27 22:57:00,32.2,31.2,29.61,SW,224,0.0,0.0,96,0.00,,,0.22,Wunderground v.1.15,2013-02-28 03:57:00,
2013-02-27 22:59:00,32.2,31.2,29.61,SW,224,0.0,0.0,96,0.00,,,0.22,Wunderground v.1.15,2013-02-28 03:59:00,
2013-02-27 23:01:00,32.2,31.2,29.61,SW,223,0.0,0.0,96,0.00,,,0.22,Wunderground v.1.15,2013-02-28 04:01:00,
2013-02-27 23:02:00,32.1,31.1,29.61,SW,223,0.0,0.0,96,0.00,,,0.22,Wunderground v.1.15,2013-02-28 04:02:00,
2013-02-27 23:04:00,32.1,31.1,29.60,SW,224,0.0,0.0,96,0.00,,,0.22,Wunderground v.1.15,2013-02-28 04:04:00,
2013-02-27 23:06:00,32.1,31.1,29.61,SW,224,0.0,0.0,96,0.00,,,0.22,Wunderground v.1.15,2013-02-28 04:06:00,
2013-02-27 23:07:00,32.1,31.1,29.61,SW,224,0.0,0.0,96,0.00,,,0.22,Wunderground v.1.15,2013-02-28 04:07:00,
2013-02-27 23:09:00,32.1,31.1,29.60,SW,224,0.0,0.0,96,0.00,,,0.22,Wunderground v.1.15,2013-02-28 04:09:00,
2013-02-27 23:11:00,32.1,31.1,29.61,SW,224,0.0,0.0,96,0.00,,,0.22,Wunderground v.1.15,2013-02-28 04:11:00,
2013-02-27 23:12:00,32.1,31.1,29.61,SW,224,0.0,0.0,96,0.00,,,0.22,Wunderground v.1.15,2013-02-28 04:12:00,
2013-02-27 23:13:00,32.1,31.3,29.61,SW,224,0.0,0.0,97,0.00,,,0.22,Wunderground v.1.15,2013-02-28 04:13:00,
2013-02-27 23:14:00,32.1,31.3,29.61,SW,224,0.0,0.0,97,0.00,,,0.22,Wunderground v.1.15,2013-02-28 04:14:00,
2013-02-27 23:16:00,32.1,31.3,29.61,SW,224,0.0,0.0,97,0.00,,,0.22,Wunderground v.1.15,2013-02-28 04:16:00,
2013-02-27 23:17:00,32.1,31.3,29.60,SW,224,0.0,0.0,97,0.00,,,0.22,Wunderground v.1.15,2013-02-28 04:17:00,
2013-02-27 23:18:00,32.1,31.3,29.60,SW,224,0.0,0.0,97,0.00,,,0.22,Wunderground v.1.15,2013-02-28 04:18:00,
2013-02-27 23:19:00,32.1,31.3,29.61,SW,224,0.0,0.0,97,0.00,,,0.22,Wunderground v.1.15,2013-02-28 04:19:00,
2013-02-27 23:21:00,32.2,31.4,29.61,SW,224,0.0,0.0,97,0.00,,,0.22,Wunderground v.1.15,2013-02-28 04:21:00,
2013-02-27 23:22:00,32.1,31.3,29.61,SW,224,0.0,0.0,97,0.00,,,0.22,Wunderground v.1.15,2013-02-28 04:22:00,
2013-02-27 23:23:00,32.1,31.3,29.61,SW,224,0.0,0.0,97,0.00,,,0.22,Wunderground v.1.15,2013-02-28 04:23:00,
2013-02-27 23:24:00,32.1,31.3,29.61,SW,224,0.0,0.0,97,0.00,,,0.22,Wunderground v.1.15,2013-02-28 04:24:00,
2013-02-27 23:26:00,32.1,31.3,29.61,SW,224,0.0,0.0,97,0.00,,,0.22,Wunderground v.1.15,2013-02-28 04:26:00,
2013-02-27 23:28:00,32.1,31.3,29.60,SW,224,0.0,0.0,97,0.00,,,0.22,Wunderground v.1.15,2013-02-28 04:28:00,
2013-02-27 23:30:00,32.1,31.3,29.60,SW,236,1.0,1.0,97,0.00,,,0.22,Wunderground v.1.15,2013-02-28 04:30:00,
2013-02-27 23:32:00,32.1,31.3,29.60,SW,236,0.0,1.0,97,0.00,,,0.22,Wunderground v.1.15,2013-02-28 04:32:00,
2013-02-27 23:33:00,32.2,31.4,29.60,SW,236,0.0,1.0,97,0.00,,,0.22,Wunderground v.1.15,2013-02-28 04:33:00,
2013-02-27 23:35:00,32.2,31.4,29.60,SW,236,1.0,1.0,97,0.00,,,0.22,Wunderground v.1.15,2013-02-28 04:35:00,
2013-02-27 23:36:00,32.2,31.4,29.60,WSW,243,1.0,2.0,97,0.00,,,0.22,Wunderground v.1.15,2013-02-28 04:36:00,
2013-02-27 23:38:00,32.2,31.4,29.60,WSW,242,1.0,2.0,97,0.00,,,0.22,Wunderground v.1.15,2013-02-28 04:38:00,
2013-02-27 23:40:00,32.1,31.3,29.60,WSW,243,1.0,1.0,97,0.00,,,0.22,Wunderground v.1.15,2013-02-28 04:40:00,
2013-02-27 23:42:00,32.1,31.3,29.60,WSW,240,0.0,1.0,97,0.00,,,0.22,Wunderground v.1.15,2013-02-28 04:42:00,
2013-02-27 23:43:00,32.1,31.3,29.60,WSW,240,0.0,1.0,97,0.00,,,0.22,Wunderground v.1.15,2013-02-28 04:43:00,
2013-02-27 23:45:00,32.1,31.3,29.60,WSW,241,0.0,1.0,97,0.00,,,0.22,Wunderground v.1.15,2013-02-28 04:45:00,
2013-02-27 23:47:00,32.2,31.4,29.60,WSW,242,1.0,1.0,97,0.00,,,0.22,Wunderground v.1.15,2013-02-28 04:47:00,
2013-02-27 23:48:00,32.1,31.3,29.60,SW,228,1.0,1.0,97,0.00,,,0.22,Wunderground v.1.15,2013-02-28 04:48:00,
2013-02-27 23:49:00,32.1,31.3,29.60,SW,228,0.0,1.0,97,0.00,,,0.22,Wunderground v.1.15,2013-02-28 04:49:00,
2013-02-27 23:50:00,32.1,31.3,29.60,SW,228,1.0,1.0,97,0.00,,,0.22,Wunderground v.1.15,2013-02-28 04:50:00,
2013-02-27 23:52:00,32.1,31.3,29.60,SW,228,0.0,1.0,97,0.00,,,0.22,Wunderground v.1.15,2013-02-28 04:52:00,
2013-02-27 23:53:00,32.1,31.3,29.60,WSW,240,1.0,2.0,97,0.00,,,0.22,Wunderground v.1.15,2013-02-28 04:53:00,
2013-02-27 23:54:00,32.2,31.4,29.60,WSW,243,3.0,3.0,97,0.00,,,0.22,Wunderground v.1.15,2013-02-28 04:54:00,
2013-02-27 23:56:00,32.1,31.3,29.60,WSW,253,1.0,3.0,97,0.00,,,0.22,Wunderground v.1.15,2013-02-28 04:56:00,
2013-02-27 23:57:00,32.2,31.4,29.60,WSW,253,1.0,3.0,97,0.00,,,0.22,Wunderground v.1.15,2013-02-28 04:57:00,
2013-02-27 23:59:00,32.1,31.3,29.60,SW,236,1.0,3.0,97,0.00,,,0.22,Wunderground v.1.15,2013-02-28 04:59:00,